Time,TemperatureF,DewpointF,PressureIn,WindDirection,WindDirectionDegrees,WindSpeedMPH,WindSpeedGustMPH,Humidity,HourlyPrecipIn,Conditions,Clouds,dailyrainin,SoftwareType,DateUTC
2013-02-12 00:02:00,39.6,25.6,30.06,West,270,0.0,0.0,57,-99.99,,,-99.99,WSDL version 423,2013-02-12 06:02:00,
2013-02-12 00:06:00,39.5,25.6,30.06,West,270,0.0,0.0,58,-99.99,,,-99.99,WSDL version 423,2013-02-12 06:06:00,
2013-02-12 00:08:00,39.5,25.8,30.06,West,270,0.0,0.0,58,-99.99,,,-99.99,WSDL version 423,2013-02-12 06:08:00,
2013-02-12 00:09:00,39.5,25.9,30.06,West,270,0.0,0.0,58,-99.99,,,-99.99,WSDL version 423,2013-02-12 06:09:00,
2013-02-12 00:13:00,39.5,25.9,30.06,West,270,0.0,0.0,58,-99.99,,,-99.99,WSDL version 423,2013-02-12 06:13:00,
2013-02-12 00:14:00,39.5,25.9,30.06,West,270,0.0,0.0,58,-99.99,,,-99.99,WSDL version 423,2013-02-12 06:14:00,
2013-02-12 00:16:00,39.5,25.9,30.06,West,270,0.0,0.0,58,-99.99,,,-99.99,WSDL version 423,2013-02-12 06:16:00,
2013-02-12 00:18:00,39.5,26.0,30.06,West,270,0.0,0.0,58,-99.99,,,-99.99,WSDL version 423,2013-02-12 06:18:00,
2013-02-12 00:19:00,39.5,26.1,30.06,West,270,0.0,0.0,59,-99.99,,,-99.99,WSDL version 423,2013-02-12 06:19:00,
2013-02-12 00:21:00,39.5,26.1,30.06,West,270,0.0,0.0,59,-99.99,,,-99.99,WSDL version 423,2013-02-12 06:21:00,
2013-02-12 00:24:00,39.5,26.2,30.06,West,270,0.0,0.0,59,-99.99,,,-99.99,WSDL version 423,2013-02-12 06:24:00,
2013-02-12 00:27:00,39.5,26.3,30.06,West,270,0.0,0.0,59,-99.99,,,-99.99,WSDL version 423,2013-02-12 06:27:00,
2013-02-12 00:30:00,39.5,26.3,30.09,West,270,0.0,0.0,59,-99.99,,,-99.99,WSDL version 423,2013-02-12 06:30:00,
2013-02-12 00:32:00,39.5,26.3,30.09,West,270,0.0,0.0,59,-99.99,,,-99.99,WSDL version 423,2013-02-12 06:32:00,
2013-02-12 00:34:00,39.4,26.2,30.09,West,270,0.0,0.0,59,-99.99,,,-99.99,WSDL version 423,2013-02-12 06:34:00,
2013-02-12 00:35:00,39.4,26.2,30.09,West,270,0.0,0.0,59,-99.99,,,-99.99,WSDL version 423,2013-02-12 06:35:00,
2013-02-12 00:39:00,39.2,26.0,30.09,West,270,0.0,0.0,59,-99.99,,,-99.99,WSDL version 423,2013-02-12 06:39:00,
2013-02-12 00:41:00,39.1,25.9,30.09,West,270,0.0,0.0,59,-99.99,,,-99.99,WSDL version 423,2013-02-12 06:41:00,
2013-02-12 00:44:00,38.9,25.7,30.09,West,270,0.0,0.0,59,-99.99,,,-99.99,WSDL version 423,2013-02-12 06:44:00,
2013-02-12 00:45:00,38.9,25.7,30.09,West,270,0.0,0.0,59,-99.99,,,-99.99,WSDL version 423,2013-02-12 06:45:00,
2013-02-12 00:50:00,38.8,26.0,30.09,West,270,0.0,0.0,60,-99.99,,,-99.99,WSDL version 423,2013-02-12 06:50:00,
2013-02-12 00:53:00,38.8,26.0,30.09,West,270,0.0,0.0,60,-99.99,,,-99.99,WSDL version 423,2013-02-12 06:53:00,
2013-02-12 00:55:00,38.8,26.0,30.09,West,270,0.0,0.0,60,-99.99,,,-99.99,WSDL version 423,2013-02-12 06:55:00,
2013-02-12 00:58:00,38.7,25.9,30.09,West,270,0.0,0.0,60,-99.99,,,-99.99,WSDL version 423,2013-02-12 06:58:00,
2013-02-12 01:00:00,38.6,25.8,30.06,West,270,0.0,0.0,60,-99.99,,,-99.99,WSDL version 423,2013-02-12 07:00:00,
2013-02-12 01:01:00,38.5,25.6,30.06,West,270,0.0,0.0,59,-99.99,,,-99.99,WSDL version 423,2013-02-12 07:01:00,
2013-02-12 01:02:00,38.4,25.5,30.06,West,270,0.0,0.0,59,-99.99,,,-99.99,WSDL version 423,2013-02-12 07:02:00,
2013-02-12 01:04:00,38.2,25.2,30.06,West,270,0.0,0.0,60,-99.99,,,-99.99,WSDL version 423,2013-02-12 07:04:00,
2013-02-12 01:07:00,38.0,25.2,30.06,West,270,0.0,0.0,60,-99.99,,,-99.99,WSDL version 423,2013-02-12 07:07:00,
2013-02-12 01:08:00,38.0,25.2,30.06,West,270,0.0,0.0,60,-99.99,,,-99.99,WSDL version 423,2013-02-12 07:08:00,
2013-02-12 01:09:00,37.8,25.1,30.06,West,270,0.0,0.0,60,-99.99,,,-99.99,WSDL version 423,2013-02-12 07:09:00,
2013-02-12 01:11:00,37.7,24.9,30.06,West,270,0.0,0.0,60,-99.99,,,-99.99,WSDL version 423,2013-02-12 07:11:00,
2013-02-12 01:12:00,37.6,24.9,30.06,West,270,0.0,0.0,60,-99.99,,,-99.99,WSDL version 423,2013-02-12 07:12:00,
2013-02-12 01:14:00,37.5,24.7,30.06,West,270,0.0,0.0,60,-99.99,,,-99.99,WSDL version 423,2013-02-12 07:14:00,
2013-02-12 01:17:00,37.4,24.7,30.06,West,270,0.0,0.0,60,-99.99,,,-99.99,WSDL version 423,2013-02-12 07:17:00,
2013-02-12 01:18:00,37.4,24.7,30.06,West,270,0.0,0.0,60,-99.99,,,-99.99,WSDL version 423,2013-02-12 07:18:00,
2013-02-12 01:19:00,37.4,24.7,30.06,West,270,0.0,0.0,61,-99.99,,,-99.99,WSDL version 423,2013-02-12 07:19:00,
2013-02-12 01:23:00,37.2,24.9,30.06,West,270,0.0,0.0,61,-99.99,,,-99.99,WSDL version 423,2013-02-12 07:23:00,
2013-02-12 01:24:00,37.2,24.8,30.06,West,270,0.0,0.0,61,-99.99,,,-99.99,WSDL version 423,2013-02-12 07:24:00,
2013-02-12 01:26:00,37.2,24.8,30.06,West,270,0.0,0.0,61,-99.99,,,-99.99,WSDL version 423,2013-02-12 07:26:00,
2013-02-12 01:28:00,37.1,24.9,30.06,West,270,0.0,0.0,62,-99.99,,,-99.99,WSDL version 423,2013-02-12 07:28:00,
2013-02-12 01:29:00,37.1,24.9,30.06,West,270,0.0,0.0,61,-99.99,,,-99.99,WSDL version 423,2013-02-12 07:29:00,
2013-02-12 01:33:00,37.0,24.8,30.06,West,270,0.0,0.0,62,-99.99,,,-99.99,WSDL version 423,2013-02-12 07:33:00,
2013-02-12 01:34:00,37.0,24.9,30.06,West,270,0.0,0.0,62,-99.99,,,-99.99,WSDL version 423,2013-02-12 07:34:00,
2013-02-12 01:36:00,37.0,25.0,30.06,West,270,0.0,0.0,62,-99.99,,,-99.99,WSDL version 423,2013-02-12 07:36:00,
2013-02-12 01:39:00,37.0,25.0,30.06,West,270,0.0,0.0,62,-99.99,,,-99.99,WSDL version 423,2013-02-12 07:39:00,
2013-02-12 01:40:00,37.0,25.0,30.06,West,270,0.0,0.0,62,-99.99,,,-99.99,WSDL version 423,2013-02-12 07:40:00,
2013-02-12 01:44:00,36.9,24.9,30.06,West,270,0.0,0.0,62,-99.99,,,-99.99,WSDL version 423,2013-02-12 07:44:00,
2013-02-12 01:46:00,36.8,24.9,30.06,West,270,0.0,0.0,62,-99.99,,,-99.99,WSDL version 423,2013-02-12 07:46:00,
2013-02-12 01:50:00,36.8,24.8,30.06,West,270,0.0,0.0,62,-99.99,,,-99.99,WSDL version 423,2013-02-12 07:50:00,
2013-02-12 01:51:00,36.8,24.8,30.06,West,270,0.0,0.0,62,-99.99,,,-99.99,WSDL version 423,2013-02-12 07:51:00,
2013-02-12 01:52:00,36.8,24.8,30.06,West,270,0.0,0.0,62,-99.99,,,-99.99,WSDL version 423,2013-02-12 07:52:00,
2013-02-12 01:55:00,36.6,24.6,30.06,West,270,0.0,0.0,62,-99.99,,,-99.99,WSDL version 423,2013-02-12 07:55:00,
2013-02-12 01:58:00,36.5,24.6,30.06,West,270,0.0,0.0,62,-99.99,,,-99.99,WSDL version 423,2013-02-12 07:58:00,
2013-02-12 02:01:00,36.5,24.8,30.06,West,270,0.0,0.0,62,-99.99,,,-99.99,WSDL version 423,2013-02-12 08:01:00,
2013-02-12 02:03:00,36.5,24.9,30.06,West,270,0.0,0.0,62,-99.99,,,-99.99,WSDL version 423,2013-02-12 08:03:00,
2013-02-12 02:04:00,36.4,24.8,30.06,West,270,0.0,0.0,62,-99.99,,,-99.99,WSDL version 423,2013-02-12 08:04:00,
2013-02-12 02:05:00,36.4,24.8,30.06,West,270,0.0,0.0,62,-99.99,,,-99.99,WSDL version 423,2013-02-12 08:05:00,
2013-02-12 02:07:00,36.3,24.7,30.06,West,270,0.0,0.0,62,-99.99,,,-99.99,WSDL version 423,2013-02-12 08:07:00,
2013-02-12 02:09:00,36.3,24.7,30.06,West,270,0.0,0.0,62,-99.99,,,-99.99,WSDL version 423,2013-02-12 08:09:00,
2013-02-12 02:10:00,36.3,24.8,30.06,West,270,0.0,0.0,63,-99.99,,,-99.99,WSDL version 423,2013-02-12 08:10:00,
2013-02-12 02:12:00,36.2,25.0,30.06,West,270,0.0,0.0,64,-99.99,,,-99.99,WSDL version 423,2013-02-12 08:12:00,
2013-02-12 02:14:00,36.2,25.3,30.06,West,270,0.0,0.0,65,-99.99,,,-99.99,WSDL version 423,2013-02-12 08:14:00,
2013-02-12 02:18:00,36.0,25.3,30.06,West,270,0.0,0.0,64,-99.99,,,-99.99,WSDL version 423,2013-02-12 08:18:00,
2013-02-12 02:19:00,35.9,25.2,30.06,West,270,0.0,0.0,64,-99.99,,,-99.99,WSDL version 423,2013-02-12 08:19:00,
2013-02-12 02:23:00,36.0,25.2,30.06,West,270,0.0,0.0,65,-99.99,,,-99.99,WSDL version 423,2013-02-12 08:23:00,
2013-02-12 02:25:00,36.1,25.4,30.06,West,270,0.0,0.0,65,-99.99,,,-99.99,WSDL version 423,2013-02-12 08:25:00,
2013-02-12 02:28:00,36.1,25.6,30.06,West,270,0.0,0.0,65,-99.99,,,-99.99,WSDL version 423,2013-02-12 08:28:00,
2013-02-12 02:29:00,36.1,25.6,30.06,West,270,0.0,0.0,65,-99.99,,,-99.99,WSDL version 423,2013-02-12 08:29:00,
2013-02-12 02:30:00,36.1,25.6,30.06,West,270,0.0,0.0,65,-99.99,,,-99.99,WSDL version 423,2013-02-12 08:30:00,
2013-02-12 02:35:00,36.1,25.6,30.06,West,265,0.0,0.0,65,-99.99,,,-99.99,WSDL version 423,2013-02-12 08:35:00,
2013-02-12 02:36:00,36.1,25.5,30.06,SSW,205,0.0,0.0,65,-99.99,,,-99.99,WSDL version 423,2013-02-12 08:36:00,
2013-02-12 02:38:00,36.0,25.5,30.06,SE,135,0.0,0.0,65,-99.99,,,-99.99,WSDL version 423,2013-02-12 08:38:00,
2013-02-12 02:40:00,35.9,25.4,30.06,SE,135,0.0,0.0,65,-99.99,,,-99.99,WSDL version 423,2013-02-12 08:40:00,
2013-02-12 02:41:00,35.9,25.3,30.06,SE,135,0.0,0.0,65,-99.99,,,-99.99,WSDL version 423,2013-02-12 08:41:00,
2013-02-12 02:45:00,35.8,25.2,30.06,SE,135,0.0,0.0,65,-99.99,,,-99.99,WSDL version 423,2013-02-12 08:45:00,
2013-02-12 02:49:00,35.8,25.4,30.06,SE,135,0.0,0.0,66,-99.99,,,-99.99,WSDL version 423,2013-02-12 08:49:00,
2013-02-12 02:51:00,35.8,25.5,30.06,SE,135,0.0,0.0,66,-99.99,,,-99.99,WSDL version 423,2013-02-12 08:51:00,
2013-02-12 02:52:00,35.8,25.6,30.06,SE,135,0.0,0.0,66,-99.99,,,-99.99,WSDL version 423,2013-02-12 08:52:00,
2013-02-12 02:55:00,35.7,25.5,30.06,SE,135,0.0,0.0,66,-99.99,,,-99.99,WSDL version 423,2013-02-12 08:55:00,
2013-02-12 02:57:00,35.6,25.4,30.06,SE,135,0.0,0.0,66,-99.99,,,-99.99,WSDL version 423,2013-02-12 08:57:00,
2013-02-12 02:59:00,35.5,25.3,30.06,SE,135,0.0,0.0,66,-99.99,,,-99.99,WSDL version 423,2013-02-12 08:59:00,
2013-02-12 03:02:00,35.5,25.3,30.06,SE,135,0.0,0.0,66,-99.99,,,-99.99,WSDL version 423,2013-02-12 09:02:00,
2013-02-12 03:04:00,35.6,25.5,30.06,SE,135,0.0,0.0,67,-99.99,,,-99.99,WSDL version 423,2013-02-12 09:04:00,
2013-02-12 03:06:00,35.6,25.6,30.06,SE,135,0.0,0.0,67,-99.99,,,-99.99,WSDL version 423,2013-02-12 09:06:00,
2013-02-12 03:07:00,35.6,25.7,30.06,SE,135,0.0,0.0,67,-99.99,,,-99.99,WSDL version 423,2013-02-12 09:07:00,
2013-02-12 03:12:00,35.3,25.5,30.06,SE,135,0.0,0.0,67,-99.99,,,-99.99,WSDL version 423,2013-02-12 09:12:00,
2013-02-12 03:14:00,35.3,25.3,30.06,SE,135,0.0,0.0,66,-99.99,,,-99.99,WSDL version 423,2013-02-12 09:14:00,
2013-02-12 03:15:00,35.2,25.2,30.06,SE,135,0.0,0.0,66,-99.99,,,-99.99,WSDL version 423,2013-02-12 09:15:00,
2013-02-12 03:20:00,35.0,24.8,30.06,SE,135,0.0,0.0,66,-99.99,,,-99.99,WSDL version 423,2013-02-12 09:20:00,
2013-02-12 03:22:00,34.9,24.8,30.06,SE,135,0.0,0.0,67,-99.99,,,-99.99,WSDL version 423,2013-02-12 09:22:00,
2013-02-12 03:23:00,34.9,24.9,30.06,SE,135,0.0,0.0,67,-99.99,,,-99.99,WSDL version 423,2013-02-12 09:23:00,
2013-02-12 03:26:00,34.9,25.0,30.06,SE,135,0.0,0.0,67,-99.99,,,-99.99,WSDL version 423,2013-02-12 09:26:00,
2013-02-12 03:30:00,34.9,25.2,30.06,SE,135,0.0,0.0,68,-99.99,,,-99.99,WSDL version 423,2013-02-12 09:30:00,
2013-02-12 03:31:00,34.8,25.3,30.06,SE,135,0.0,0.0,68,-99.99,,,-99.99,WSDL version 423,2013-02-12 09:31:00,
2013-02-12 03:32:00,34.8,25.3,30.06,SE,135,0.0,0.0,68,-99.99,,,-99.99,WSDL version 423,2013-02-12 09:32:00,
2013-02-12 03:35:00,34.7,25.2,30.06,SE,135,0.0,0.0,68,-99.99,,,-99.99,WSDL version 423,2013-02-12 09:35:00,
2013-02-12 03:38:00,34.6,24.9,30.06,ESE,118,0.0,0.0,67,-99.99,,,-99.99,WSDL version 423,2013-02-12 09:38:00,
2013-02-12 03:40:00,34.5,24.8,30.06,ESE,113,0.0,0.0,68,-99.99,,,-99.99,WSDL version 423,2013-02-12 09:40:00,
2013-02-12 03:42:00,34.5,25.0,30.06,ESE,113,0.0,0.0,69,-99.99,,,-99.99,WSDL version 423,2013-02-12 09:42:00,
2013-02-12 03:44:00,34.5,25.2,30.06,ESE,113,0.0,0.0,69,-99.99,,,-99.99,WSDL version 423,2013-02-12 09:44:00,
2013-02-12 03:49:00,34.6,25.4,30.06,ESE,113,0.0,0.0,69,-99.99,,,-99.99,WSDL version 423,2013-02-12 09:49:00,
2013-02-12 03:50:00,34.6,25.5,30.06,ESE,113,0.0,0.0,69,-99.99,,,-99.99,WSDL version 423,2013-02-12 09:50:00,
2013-02-12 03:52:00,34.7,25.7,30.06,South,183,0.0,0.0,71,-99.99,,,-99.99,WSDL version 423,2013-02-12 09:52:00,
2013-02-12 03:56:00,34.6,26.0,30.06,West,270,0.0,0.0,71,-99.99,,,-99.99,WSDL version 423,2013-02-12 09:56:00,
2013-02-12 03:57:00,34.5,26.0,30.06,West,270,0.0,0.0,71,-99.99,,,-99.99,WSDL version 423,2013-02-12 09:57:00,
2013-02-12 04:00:00,34.4,26.0,30.06,West,270,0.0,0.0,72,-99.99,,,-99.99,WSDL version 423,2013-02-12 10:00:00,
2013-02-12 04:01:00,34.4,26.1,30.06,West,270,0.0,0.0,72,-99.99,,,-99.99,WSDL version 423,2013-02-12 10:01:00,
2013-02-12 04:02:00,34.4,26.1,30.06,West,270,0.0,0.0,72,-99.99,,,-99.99,WSDL version 423,2013-02-12 10:02:00,
2013-02-12 04:07:00,34.5,26.0,30.06,West,270,0.0,0.0,71,-99.99,,,-99.99,WSDL version 423,2013-02-12 10:07:00,
2013-02-12 04:08:00,34.5,26.1,30.06,West,270,0.0,0.0,72,-99.99,,,-99.99,WSDL version 423,2013-02-12 10:08:00,
2013-02-12 04:12:00,34.5,26.3,30.06,West,270,0.0,0.0,72,-99.99,,,-99.99,WSDL version 423,2013-02-12 10:12:00,
2013-02-12 04:13:00,34.5,26.2,30.06,West,270,0.0,0.0,71,-99.99,,,-99.99,WSDL version 423,2013-02-12 10:13:00,
2013-02-12 04:14:00,34.5,26.1,30.06,West,270,0.0,0.0,71,-99.99,,,-99.99,WSDL version 423,2013-02-12 10:14:00,
2013-02-12 04:17:00,34.4,25.9,30.06,West,270,0.0,0.0,71,-99.99,,,-99.99,WSDL version 423,2013-02-12 10:17:00,
2013-02-12 04:18:00,34.3,25.8,30.06,West,270,0.0,0.0,71,-99.99,,,-99.99,WSDL version 423,2013-02-12 10:18:00,
2013-02-12 04:20:00,34.3,25.8,30.06,West,270,0.0,0.0,71,-99.99,,,-99.99,WSDL version 423,2013-02-12 10:20:00,
2013-02-12 04:25:00,34.3,25.8,30.06,West,270,0.0,0.0,71,-99.99,,,-99.99,WSDL version 423,2013-02-12 10:25:00,
2013-02-12 04:26:00,34.3,25.8,30.06,West,270,0.0,0.0,71,-99.99,,,-99.99,WSDL version 423,2013-02-12 10:26:00,
2013-02-12 04:28:00,34.3,25.8,30.06,West,270,0.0,0.0,71,-99.99,,,-99.99,WSDL version 423,2013-02-12 10:28:00,
2013-02-12 04:31:00,34.2,25.7,30.06,West,270,0.0,0.0,71,-99.99,,,-99.99,WSDL version 423,2013-02-12 10:31:00,
2013-02-12 04:32:00,34.1,25.6,30.06,West,270,0.0,0.0,71,-99.99,,,-99.99,WSDL version 423,2013-02-12 10:32:00,
2013-02-12 04:35:00,34.0,25.4,30.06,West,270,0.0,0.0,70,-99.99,,,-99.99,WSDL version 423,2013-02-12 10:35:00,
2013-02-12 04:38:00,33.8,25.1,30.06,West,270,0.0,0.0,70,-99.99,,,-99.99,WSDL version 423,2013-02-12 10:38:00,
2013-02-12 04:40:00,33.8,25.1,30.06,West,270,0.0,0.0,71,-99.99,,,-99.99,WSDL version 423,2013-02-12 10:40:00,
2013-02-12 04:41:00,33.8,25.1,30.06,West,270,0.0,0.0,71,-99.99,,,-99.99,WSDL version 423,2013-02-12 10:41:00,
2013-02-12 04:44:00,33.8,25.3,30.06,West,270,0.0,0.0,71,-99.99,,,-99.99,WSDL version 423,2013-02-12 10:44:00,
2013-02-12 04:46:00,33.7,25.2,30.06,West,270,0.0,0.0,71,-99.99,,,-99.99,WSDL version 423,2013-02-12 10:46:00,
2013-02-12 04:49:00,33.6,25.1,30.06,West,270,0.0,0.0,71,-99.99,,,-99.99,WSDL version 423,2013-02-12 10:49:00,
2013-02-12 04:50:00,33.5,25.0,30.06,West,270,0.0,0.0,71,-99.99,,,-99.99,WSDL version 423,2013-02-12 10:50:00,
2013-02-12 04:54:00,33.4,24.9,30.06,West,270,0.0,0.0,71,-99.99,,,-99.99,WSDL version 423,2013-02-12 10:54:00,
2013-02-12 04:55:00,33.3,24.8,30.06,West,270,0.0,0.0,71,-99.99,,,-99.99,WSDL version 423,2013-02-12 10:55:00,
2013-02-12 04:58:00,33.2,24.8,30.06,West,270,0.0,0.0,72,-99.99,,,-99.99,WSDL version 423,2013-02-12 10:58:00,
2013-02-12 05:00:00,33.2,24.9,30.06,West,270,0.0,0.0,72,-99.99,,,-99.99,WSDL version 423,2013-02-12 11:00:00,
2013-02-12 05:03:00,33.2,25.1,30.06,West,270,0.0,0.0,72,-99.99,,,-99.99,WSDL version 423,2013-02-12 11:03:00,
2013-02-12 05:04:00,33.2,25.1,30.06,West,270,0.0,0.0,72,-99.99,,,-99.99,WSDL version 423,2013-02-12 11:04:00,
2013-02-12 05:05:00,33.2,25.1,30.06,West,270,0.0,0.0,72,-99.99,,,-99.99,WSDL version 423,2013-02-12 11:05:00,
2013-02-12 05:08:00,33.2,25.0,30.06,West,270,0.0,0.0,72,-99.99,,,-99.99,WSDL version 423,2013-02-12 11:08:00,
2013-02-12 05:10:00,33.1,24.9,30.06,West,270,0.0,0.0,72,-99.99,,,-99.99,WSDL version 423,2013-02-12 11:10:00,
2013-02-12 05:12:00,33.1,24.9,30.06,West,270,0.0,0.0,72,-99.99,,,-99.99,WSDL version 423,2013-02-12 11:12:00,
2013-02-12 05:13:00,33.1,24.9,30.06,West,270,0.0,0.0,72,-99.99,,,-99.99,WSDL version 423,2013-02-12 11:13:00,
2013-02-12 05:15:00,33.1,25.1,30.06,West,270,0.0,0.0,72,-99.99,,,-99.99,WSDL version 423,2013-02-12 11:15:00,
2013-02-12 05:19:00,33.2,25.3,30.06,West,270,0.0,0.0,72,-99.99,,,-99.99,WSDL version 423,2013-02-12 11:19:00,
2013-02-12 05:20:00,33.2,25.3,30.06,West,270,0.0,0.0,72,-99.99,,,-99.99,WSDL version 423,2013-02-12 11:20:00,
2013-02-12 05:25:00,33.2,25.4,30.06,West,270,0.0,0.0,72,-99.99,,,-99.99,WSDL version 423,2013-02-12 11:25:00,
2013-02-12 05:26:00,33.2,25.4,30.06,West,270,0.0,0.0,72,-99.99,,,-99.99,WSDL version 423,2013-02-12 11:26:00,
2013-02-12 05:27:00,33.2,25.4,30.06,West,270,0.0,0.0,72,-99.99,,,-99.99,WSDL version 423,2013-02-12 11:27:00,
2013-02-12 05:30:00,33.2,25.5,30.06,West,270,0.0,0.0,73,-99.99,,,-99.99,WSDL version 423,2013-02-12 11:30:00,
2013-02-12 05:33:00,33.2,25.7,30.06,West,270,0.0,0.0,73,-99.99,,,-99.99,WSDL version 423,2013-02-12 11:33:00,
2013-02-12 05:34:00,33.2,25.7,30.06,West,270,0.0,0.0,73,-99.99,,,-99.99,WSDL version 423,2013-02-12 11:34:00,
2013-02-12 05:35:00,33.2,25.7,30.06,West,270,0.0,0.0,73,-99.99,,,-99.99,WSDL version 423,2013-02-12 11:35:00,
2013-02-12 05:39:00,33.1,25.5,30.06,West,270,0.0,0.0,73,-99.99,,,-99.99,WSDL version 423,2013-02-12 11:39:00,
2013-02-12 05:40:00,33.1,25.5,30.06,West,270,0.0,0.0,73,-99.99,,,-99.99,WSDL version 423,2013-02-12 11:40:00,
2013-02-12 05:41:00,33.1,25.5,30.06,West,270,0.0,0.0,73,-99.99,,,-99.99,WSDL version 423,2013-02-12 11:41:00,
2013-02-12 05:44:00,33.1,25.5,30.06,West,270,0.0,0.0,73,-99.99,,,-99.99,WSDL version 423,2013-02-12 11:44:00,
2013-02-12 05:46:00,33.1,25.5,30.06,West,270,0.0,0.0,73,-99.99,,,-99.99,WSDL version 423,2013-02-12 11:46:00,
2013-02-12 05:47:00,33.1,25.5,30.06,West,270,0.0,0.0,73,-99.99,,,-99.99,WSDL version 423,2013-02-12 11:47:00,
2013-02-12 05:51:00,33.1,25.6,30.06,West,270,0.0,0.0,73,-99.99,,,-99.99,WSDL version 423,2013-02-12 11:51:00,
2013-02-12 05:52:00,33.2,25.7,30.06,West,270,0.0,0.0,74,-99.99,,,-99.99,WSDL version 423,2013-02-12 11:52:00,
2013-02-12 05:54:00,33.2,25.8,30.06,West,270,0.0,0.0,74,-99.99,,,-99.99,WSDL version 423,2013-02-12 11:54:00,
2013-02-12 05:57:00,33.3,26.2,30.06,West,270,0.0,0.0,75,-99.99,,,-99.99,WSDL version 423,2013-02-12 11:57:00,
2013-02-12 05:59:00,33.5,26.5,30.06,West,270,0.0,0.0,76,-99.99,,,-99.99,WSDL version 423,2013-02-12 11:59:00,
2013-02-12 06:00:00,33.5,26.7,30.06,West,270,0.0,0.0,76,-99.99,,,-99.99,WSDL version 423,2013-02-12 12:00:00,
2013-02-12 06:04:00,33.6,27.1,30.06,West,270,0.0,0.0,77,-99.99,,,-99.99,WSDL version 423,2013-02-12 12:04:00,
2013-02-12 06:09:00,33.6,26.9,30.06,West,270,0.0,0.0,76,-99.99,,,-99.99,WSDL version 423,2013-02-12 12:09:00,
2013-02-12 06:10:00,33.6,26.9,30.06,West,270,0.0,0.0,76,-99.99,,,-99.99,WSDL version 423,2013-02-12 12:10:00,
2013-02-12 06:12:00,33.6,26.9,30.06,West,270,0.0,0.0,76,-99.99,,,-99.99,WSDL version 423,2013-02-12 12:12:00,
2013-02-12 06:16:00,33.6,26.9,30.06,West,270,0.0,0.0,76,-99.99,,,-99.99,WSDL version 423,2013-02-12 12:16:00,
2013-02-12 06:19:00,33.7,27.0,30.06,West,270,0.0,0.0,76,-99.99,,,-99.99,WSDL version 423,2013-02-12 12:19:00,
2013-02-12 06:20:00,33.7,27.0,30.06,West,270,0.0,0.0,76,-99.99,,,-99.99,WSDL version 423,2013-02-12 12:20:00,
2013-02-12 06:21:00,33.8,27.1,30.06,West,270,0.0,0.0,76,-99.99,,,-99.99,WSDL version 423,2013-02-12 12:21:00,
2013-02-12 06:25:00,33.9,27.4,30.06,West,270,0.0,0.0,77,-99.99,,,-99.99,WSDL version 423,2013-02-12 12:25:00,
2013-02-12 06:27:00,34.0,27.5,30.06,West,270,0.0,0.0,77,-99.99,,,-99.99,WSDL version 423,2013-02-12 12:27:00,
2013-02-12 06:30:00,33.8,27.3,30.06,West,270,0.0,0.0,76,-99.99,,,-99.99,WSDL version 423,2013-02-12 12:30:00,
2013-02-12 06:31:00,33.6,27.1,30.06,West,270,0.0,0.0,75,-99.99,,,-99.99,WSDL version 423,2013-02-12 12:31:00,
2013-02-12 06:34:00,32.9,26.0,30.06,West,270,0.0,0.0,75,-99.99,,,-99.99,WSDL version 423,2013-02-12 12:34:00,
2013-02-12 06:39:00,32.4,25.2,30.06,West,270,0.0,0.0,75,-99.99,,,-99.99,WSDL version 423,2013-02-12 12:39:00,
2013-02-12 06:40:00,32.3,25.2,30.06,West,270,0.0,0.0,75,-99.99,,,-99.99,WSDL version 423,2013-02-12 12:40:00,
2013-02-12 06:41:00,32.3,25.3,30.06,West,270,0.0,0.0,76,-99.99,,,-99.99,WSDL version 423,2013-02-12 12:41:00,
2013-02-12 06:44:00,32.4,25.7,30.06,West,270,0.0,0.0,76,-99.99,,,-99.99,WSDL version 423,2013-02-12 12:44:00,
2013-02-12 06:46:00,32.5,26.0,30.06,West,270,0.0,0.0,77,-99.99,,,-99.99,WSDL version 423,2013-02-12 12:46:00,
2013-02-12 06:47:00,32.6,26.1,30.06,West,270,0.0,0.0,77,-99.99,,,-99.99,WSDL version 423,2013-02-12 12:47:00,
2013-02-12 06:49:00,32.6,26.3,30.06,West,270,0.0,0.0,78,-99.99,,,-99.99,WSDL version 423,2013-02-12 12:49:00,
2013-02-12 06:52:00,32.7,26.6,30.06,West,270,0.0,0.0,78,-99.99,,,-99.99,WSDL version 423,2013-02-12 12:52:00,
2013-02-12 06:54:00,32.6,26.4,30.06,West,270,0.0,0.0,77,-99.99,,,-99.99,WSDL version 423,2013-02-12 12:54:00,
2013-02-12 06:56:00,32.4,26.2,30.06,West,270,0.0,0.0,77,-99.99,,,-99.99,WSDL version 423,2013-02-12 12:56:00,
2013-02-12 07:00:00,32.0,26.2,30.03,West,270,0.0,0.0,77,-99.99,,,-99.99,WSDL version 423,2013-02-12 13:00:00,
2013-02-12 07:01:00,32.0,26.2,30.03,West,270,0.0,0.0,77,-99.99,,,-99.99,WSDL version 423,2013-02-12 13:01:00,
2013-02-12 07:02:00,32.0,26.3,30.03,West,270,0.0,0.0,77,-99.99,,,-99.99,WSDL version 423,2013-02-12 13:02:00,
2013-02-12 07:05:00,32.1,26.0,30.03,West,270,0.0,0.0,77,-99.99,,,-99.99,WSDL version 423,2013-02-12 13:05:00,
2013-02-12 07:07:00,32.2,26.0,30.03,West,270,0.0,0.0,78,-99.99,,,-99.99,WSDL version 423,2013-02-12 13:07:00,
2013-02-12 07:10:00,32.3,26.2,30.03,West,270,0.0,0.0,78,-99.99,,,-99.99,WSDL version 423,2013-02-12 13:10:00,
2013-02-12 07:11:00,32.3,26.2,30.03,West,270,0.0,0.0,78,-99.99,,,-99.99,WSDL version 423,2013-02-12 13:11:00,
2013-02-12 07:12:00,32.4,26.4,30.03,West,270,0.0,0.0,79,-99.99,,,-99.99,WSDL version 423,2013-02-12 13:12:00,
2013-02-12 07:16:00,32.9,27.2,30.03,West,270,0.0,0.0,80,-99.99,,,-99.99,WSDL version 423,2013-02-12 13:16:00,
2013-02-12 07:18:00,33.2,27.5,30.03,West,270,0.0,0.0,80,-99.99,,,-99.99,WSDL version 423,2013-02-12 13:18:00,
2013-02-12 07:19:00,33.2,27.6,30.03,West,270,0.0,0.0,80,-99.99,,,-99.99,WSDL version 423,2013-02-12 13:19:00,
2013-02-12 07:20:00,33.4,27.8,30.03,West,270,0.0,0.0,80,-99.99,,,-99.99,WSDL version 423,2013-02-12 13:20:00,
2013-02-12 07:24:00,33.9,28.4,30.03,West,270,0.0,0.0,81,-99.99,,,-99.99,WSDL version 423,2013-02-12 13:24:00,
2013-02-12 07:29:00,34.5,29.2,30.03,West,270,0.0,0.0,81,-99.99,,,-99.99,WSDL version 423,2013-02-12 13:29:00,
2013-02-12 07:30:00,34.7,29.4,30.03,West,270,0.0,0.0,81,-99.99,,,-99.99,WSDL version 423,2013-02-12 13:30:00,
2013-02-12 07:32:00,34.9,29.5,30.03,West,270,0.0,0.0,80,-99.99,,,-99.99,WSDL version 423,2013-02-12 13:32:00,
2013-02-12 07:35:00,35.3,29.7,30.03,West,270,0.0,0.0,80,-99.99,,,-99.99,WSDL version 423,2013-02-12 13:35:00,
2013-02-12 07:37:00,35.5,29.9,30.03,West,270,0.0,0.0,80,-99.99,,,-99.99,WSDL version 423,2013-02-12 13:37:00,
2013-02-12 07:41:00,35.9,30.4,30.03,West,270,0.0,0.0,80,-99.99,,,-99.99,WSDL version 423,2013-02-12 13:41:00,
2013-02-12 07:43:00,36.2,30.6,30.03,West,270,0.0,0.0,80,-99.99,,,-99.99,WSDL version 423,2013-02-12 13:43:00,
2013-02-12 07:46:00,36.6,31.0,30.03,West,270,0.0,0.0,81,-99.99,,,-99.99,WSDL version 423,2013-02-12 13:46:00,
2013-02-12 07:47:00,36.7,31.3,30.03,West,270,0.0,0.0,81,-99.99,,,-99.99,WSDL version 423,2013-02-12 13:47:00,
2013-02-12 07:51:00,37.3,32.1,30.03,West,270,0.0,0.0,81,-99.99,,,-99.99,WSDL version 423,2013-02-12 13:51:00,
2013-02-12 07:53:00,37.7,32.4,30.03,West,270,0.0,0.0,81,-99.99,,,-99.99,WSDL version 423,2013-02-12 13:53:00,
2013-02-12 07:56:00,38.1,32.6,30.03,West,276,0.0,0.0,80,-99.99,,,-99.99,WSDL version 423,2013-02-12 13:56:00,
2013-02-12 07:59:00,38.6,33.0,30.03,WNW,293,0.0,0.0,80,-99.99,,,-99.99,WSDL version 423,2013-02-12 13:59:00,
2013-02-12 08:00:00,38.8,33.2,30.03,WNW,293,0.0,0.0,80,-99.99,,,-99.99,WSDL version 423,2013-02-12 14:00:00,
2013-02-12 08:01:00,39.0,33.4,30.03,WNW,293,0.0,0.0,81,-99.99,,,-99.99,WSDL version 423,2013-02-12 14:01:00,
2013-02-12 08:05:00,39.5,34.2,30.03,NNW,345,0.0,0.0,81,-99.99,,,-99.99,WSDL version 423,2013-02-12 14:05:00,
2013-02-12 08:06:00,39.6,34.2,30.03,North,360,0.0,0.0,80,-99.99,,,-99.99,WSDL version 423,2013-02-12 14:06:00,
2013-02-12 08:07:00,39.8,34.3,30.03,North,360,0.0,0.0,80,-99.99,,,-99.99,WSDL version 423,2013-02-12 14:07:00,
2013-02-12 08:11:00,40.4,34.7,30.03,North,360,0.0,0.0,80,-99.99,,,-99.99,WSDL version 423,2013-02-12 14:11:00,
2013-02-12 08:12:00,40.5,34.9,30.03,North,360,0.0,0.0,80,-99.99,,,-99.99,WSDL version 423,2013-02-12 14:12:00,
2013-02-12 08:16:00,41.4,35.8,30.03,North,360,0.0,0.0,81,-99.99,,,-99.99,WSDL version 423,2013-02-12 14:16:00,
2013-02-12 08:18:00,41.7,36.2,30.03,North,360,0.0,0.0,81,-99.99,,,-99.99,WSDL version 423,2013-02-12 14:18:00,
2013-02-12 08:19:00,42.0,36.5,30.03,North,360,0.0,0.0,81,-99.99,,,-99.99,WSDL version 423,2013-02-12 14:19:00,
2013-02-12 08:22:00,42.8,37.3,30.03,NNW,346,0.0,0.0,81,-99.99,,,-99.99,WSDL version 423,2013-02-12 14:22:00,
2013-02-12 08:23:00,43.1,37.6,30.03,NNW,335,0.0,0.0,80,-99.99,,,-99.99,WSDL version 423,2013-02-12 14:23:00,
2013-02-12 08:25:00,43.5,37.9,30.03,NW,309,0.0,0.0,80,-99.99,,,-99.99,WSDL version 423,2013-02-12 14:25:00,
2013-02-12 08:27:00,44.0,37.8,30.03,NW,304,0.0,0.0,75,-99.99,,,-99.99,WSDL version 423,2013-02-12 14:27:00,
2013-02-12 08:28:00,44.4,37.6,30.03,WNW,293,0.0,0.0,75,-99.99,,,-99.99,WSDL version 423,2013-02-12 14:28:00,
2013-02-12 08:31:00,45.0,37.4,30.03,WNW,301,0.0,0.0,73,-99.99,,,-99.99,WSDL version 423,2013-02-12 14:31:00,
2013-02-12 08:33:00,45.5,37.4,30.03,NNW,345,0.0,0.0,72,-99.99,,,-99.99,WSDL version 423,2013-02-12 14:33:00,
2013-02-12 08:36:00,46.2,37.1,30.03,NW,323,0.0,0.0,69,-99.99,,,-99.99,WSDL version 423,2013-02-12 14:36:00,
2013-02-12 08:37:00,46.4,37.2,30.03,NW,313,0.0,0.0,70,-99.99,,,-99.99,WSDL version 423,2013-02-12 14:37:00,
2013-02-12 08:38:00,46.8,37.5,30.03,NNW,338,0.0,0.0,70,-99.99,,,-99.99,WSDL version 423,2013-02-12 14:38:00,
2013-02-12 08:41:00,47.6,38.1,30.03,NW,326,0.0,0.0,68,-99.99,,,-99.99,WSDL version 423,2013-02-12 14:41:00,
2013-02-12 08:44:00,48.3,37.0,30.03,WNW,293,0.0,0.0,63,-99.99,,,-99.99,WSDL version 423,2013-02-12 14:44:00,
2013-02-12 08:46:00,48.7,36.5,30.03,WNW,303,0.0,0.0,61,-99.99,,,-99.99,WSDL version 423,2013-02-12 14:46:00,
2013-02-12 08:48:00,49.1,36.3,30.03,WNW,293,0.0,0.0,58,-99.99,,,-99.99,WSDL version 423,2013-02-12 14:48:00,
2013-02-12 08:53:00,49.9,35.5,30.03,NW,315,0.0,0.0,58,-99.99,,,-99.99,WSDL version 423,2013-02-12 14:53:00,
2013-02-12 08:54:00,50.1,35.5,30.03,NW,315,0.0,0.0,58,-99.99,,,-99.99,WSDL version 423,2013-02-12 14:54:00,
2013-02-12 08:56:00,50.5,36.1,30.03,NW,307,0.0,0.0,56,-99.99,,,-99.99,WSDL version 423,2013-02-12 14:56:00,
2013-02-12 09:01:00,51.3,35.1,30.06,NW,315,0.0,0.0,54,-99.99,,,-99.99,WSDL version 423,2013-02-12 15:01:00,
2013-02-12 09:02:00,51.6,35.4,30.06,NW,315,0.0,0.0,54,-99.99,,,-99.99,WSDL version 423,2013-02-12 15:02:00,
2013-02-12 09:06:00,52.7,36.4,30.06,NE,34,0.0,0.0,54,-99.99,,,-99.99,WSDL version 423,2013-02-12 15:06:00,
2013-02-12 09:07:00,52.9,36.5,30.06,NE,45,0.0,0.0,53,-99.99,,,-99.99,WSDL version 423,2013-02-12 15:07:00,
2013-02-12 09:08:00,53.1,36.6,30.06,NE,45,0.0,0.0,52,-99.99,,,-99.99,WSDL version 423,2013-02-12 15:08:00,
2013-02-12 09:12:00,54.0,37.1,30.06,NE,45,0.0,0.0,51,-99.99,,,-99.99,WSDL version 423,2013-02-12 15:12:00,
2013-02-12 09:14:00,54.8,36.2,30.06,NE,38,0.0,0.0,49,-99.99,,,-99.99,WSDL version 423,2013-02-12 15:14:00,
2013-02-12 09:15:00,54.9,36.1,30.06,NNE,28,0.0,0.0,50,-99.99,,,-99.99,WSDL version 423,2013-02-12 15:15:00,
2013-02-12 09:19:00,55.4,35.3,30.06,NNE,23,0.0,0.0,43,-99.99,,,-99.99,WSDL version 423,2013-02-12 15:19:00,
2013-02-12 09:21:00,55.4,33.8,30.06,NNE,33,0.0,0.0,42,-99.99,,,-99.99,WSDL version 423,2013-02-12 15:21:00,
2013-02-12 09:23:00,55.3,32.7,30.06,NE,51,0.0,0.0,41,-99.99,,,-99.99,WSDL version 423,2013-02-12 15:23:00,
2013-02-12 09:24:00,55.2,32.3,30.06,NE,34,0.0,0.0,41,-99.99,,,-99.99,WSDL version 423,2013-02-12 15:24:00,
2013-02-12 09:26:00,55.2,32.1,30.06,NNE,28,0.0,0.0,41,-99.99,,,-99.99,WSDL version 423,2013-02-12 15:26:00,
2013-02-12 09:29:00,55.4,31.9,30.06,NNW,335,0.0,0.0,41,-99.99,,,-99.99,WSDL version 423,2013-02-12 15:29:00,
2013-02-12 09:30:00,55.5,32.0,30.03,North,357,0.0,0.0,41,-99.99,,,-99.99,WSDL version 423,2013-02-12 15:30:00,
2013-02-12 09:31:00,55.7,32.0,30.03,NNW,335,0.0,0.0,40,-99.99,,,-99.99,WSDL version 423,2013-02-12 15:31:00,
2013-02-12 09:36:00,56.5,32.4,30.03,NNW,346,0.0,0.0,40,-99.99,,,-99.99,WSDL version 423,2013-02-12 15:36:00,
2013-02-12 09:37:00,56.6,32.5,30.03,NNE,23,0.0,0.0,39,-99.99,,,-99.99,WSDL version 423,2013-02-12 15:37:00,
2013-02-12 09:38:00,56.7,32.3,30.03,NNE,20,0.0,0.0,39,-99.99,,,-99.99,WSDL version 423,2013-02-12 15:38:00,
2013-02-12 09:43:00,57.4,32.8,30.03,ENE,63,0.0,0.0,39,-99.99,,,-99.99,WSDL version 423,2013-02-12 15:43:00,
2013-02-12 09:44:00,57.6,32.8,30.03,ENE,59,0.0,0.0,39,-99.99,,,-99.99,WSDL version 423,2013-02-12 15:44:00,
2013-02-12 09:45:00,57.7,32.6,30.03,NNE,31,0.0,0.0,39,-99.99,,,-99.99,WSDL version 423,2013-02-12 15:45:00,
2013-02-12 09:48:00,58.1,33.0,30.03,NNE,23,0.0,0.0,38,-99.99,,,-99.99,WSDL version 423,2013-02-12 15:48:00,
2013-02-12 09:50:00,58.3,32.7,30.03,North,5,0.0,0.0,37,-99.99,,,-99.99,WSDL version 423,2013-02-12 15:50:00,
2013-02-12 09:52:00,58.5,32.7,30.03,NNE,25,0.0,0.0,38,-99.99,,,-99.99,WSDL version 423,2013-02-12 15:52:00,
2013-02-12 09:55:00,58.8,32.5,30.03,NNE,25,0.0,0.0,37,-99.99,,,-99.99,WSDL version 423,2013-02-12 15:55:00,
2013-02-12 09:57:00,58.9,32.3,30.03,NNE,33,0.0,0.0,37,-99.99,,,-99.99,WSDL version 423,2013-02-12 15:57:00,
2013-02-12 09:58:00,59.0,32.4,30.03,North,360,0.0,0.0,36,-99.99,,,-99.99,WSDL version 423,2013-02-12 15:58:00,
2013-02-12 10:00:00,59.2,32.4,30.03,NW,308,0.0,0.0,36,-99.99,,,-99.99,WSDL version 423,2013-02-12 16:00:00,
2013-02-12 10:03:00,59.4,32.2,30.03,North,3,0.0,0.0,36,-99.99,,,-99.99,WSDL version 423,2013-02-12 16:03:00,
2013-02-12 10:04:00,59.4,32.1,30.03,NW,323,0.0,0.0,35,-99.99,,,-99.99,WSDL version 423,2013-02-12 16:04:00,
2013-02-12 10:41:00,57.0,27.9,30.00,NE,45,0.0,0.0,32,-99.99,,,-99.99,WSDL version 423,2013-02-12 16:41:00,
2013-02-12 10:43:00,56.8,27.5,30.00,NNE,23,0.0,0.0,32,-99.99,,,-99.99,WSDL version 423,2013-02-12 16:43:00,
2013-02-12 10:44:00,56.6,27.3,30.00,North,8,0.0,0.0,32,-99.99,,,-99.99,WSDL version 423,2013-02-12 16:44:00,
2013-02-12 10:48:00,56.3,26.8,30.00,ENE,61,0.0,0.0,32,-99.99,,,-99.99,WSDL version 423,2013-02-12 16:48:00,
2013-02-12 10:49:00,56.2,26.8,30.00,East,96,0.0,0.0,33,-99.99,,,-99.99,WSDL version 423,2013-02-12 16:49:00,
2013-02-12 10:50:00,56.0,26.9,30.00,East,90,0.0,0.0,33,-99.99,,,-99.99,WSDL version 423,2013-02-12 16:50:00,
2013-02-12 10:53:00,55.7,27.1,30.00,ENE,60,0.0,0.0,33,-99.99,,,-99.99,WSDL version 423,2013-02-12 16:53:00,
2013-02-12 10:54:00,55.6,27.0,30.00,NNE,17,0.0,0.0,33,-99.99,,,-99.99,WSDL version 423,2013-02-12 16:54:00,
2013-02-12 10:56:00,55.6,27.0,30.00,NNE,33,0.0,0.0,33,-99.99,,,-99.99,WSDL version 423,2013-02-12 16:56:00,
2013-02-12 10:58:00,55.5,26.9,30.00,NE,45,0.0,0.0,33,-99.99,,,-99.99,WSDL version 423,2013-02-12 16:58:00,
2013-02-12 10:59:00,55.5,26.9,30.00,NE,38,0.0,0.0,33,-99.99,,,-99.99,WSDL version 423,2013-02-12 16:59:00,
2013-02-12 11:02:00,55.4,26.8,30.03,NE,34,0.0,0.0,33,-99.99,,,-99.99,WSDL version 423,2013-02-12 17:02:00,
2013-02-12 11:03:00,55.4,26.8,30.03,NE,43,0.0,0.0,33,-99.99,,,-99.99,WSDL version 423,2013-02-12 17:03:00,
2013-02-12 11:04:00,55.4,26.8,30.03,NE,35,0.0,0.0,33,-99.99,,,-99.99,WSDL version 423,2013-02-12 17:04:00,
2013-02-12 11:08:00,55.3,26.7,30.03,NE,48,0.0,0.0,33,-99.99,,,-99.99,WSDL version 423,2013-02-12 17:08:00,
2013-02-12 11:09:00,55.3,26.7,30.03,NE,48,0.0,0.0,33,-99.99,,,-99.99,WSDL version 423,2013-02-12 17:09:00,
2013-02-12 11:11:00,55.3,26.7,30.03,NE,56,0.0,0.0,33,-99.99,,,-99.99,WSDL version 423,2013-02-12 17:11:00,
2013-02-12 11:14:00,55.4,26.8,30.03,NNE,17,0.0,0.0,33,-99.99,,,-99.99,WSDL version 423,2013-02-12 17:14:00,
2013-02-12 11:16:00,55.5,26.8,30.03,North,349,0.0,0.0,33,-99.99,,,-99.99,WSDL version 423,2013-02-12 17:16:00,
2013-02-12 11:20:00,55.5,26.9,30.03,NE,55,0.0,0.0,33,-99.99,,,-99.99,WSDL version 423,2013-02-12 17:20:00,
2013-02-12 11:21:00,55.5,26.9,30.03,NE,35,0.0,0.0,33,-99.99,,,-99.99,WSDL version 423,2013-02-12 17:21:00,
2013-02-12 11:22:00,55.4,26.8,30.03,ENE,65,0.0,0.0,33,-99.99,,,-99.99,WSDL version 423,2013-02-12 17:22:00,
2013-02-12 11:23:00,55.3,26.7,30.03,East,84,0.0,0.0,33,-99.99,,,-99.99,WSDL version 423,2013-02-12 17:23:00,
2013-02-12 11:26:00,55.0,26.5,30.03,East,100,0.0,0.0,33,-99.99,,,-99.99,WSDL version 423,2013-02-12 17:26:00,
2013-02-12 11:27:00,55.0,26.4,30.03,ESE,110,0.0,0.0,33,-99.99,,,-99.99,WSDL version 423,2013-02-12 17:27:00,
2013-02-12 11:29:00,54.9,26.4,30.03,ESE,108,0.0,0.0,33,-99.99,,,-99.99,WSDL version 423,2013-02-12 17:29:00,
2013-02-12 11:31:00,54.7,26.1,30.03,ENE,70,0.0,0.0,33,-99.99,,,-99.99,WSDL version 423,2013-02-12 17:31:00,
2013-02-12 11:32:00,54.6,26.1,30.03,East,85,0.0,0.0,33,-99.99,,,-99.99,WSDL version 423,2013-02-12 17:32:00,
2013-02-12 11:36:00,54.6,26.1,30.03,NNE,28,0.0,0.0,33,-99.99,,,-99.99,WSDL version 423,2013-02-12 17:36:00,
2013-02-12 11:40:00,54.8,26.3,30.03,NNE,30,0.0,0.0,33,-99.99,,,-99.99,WSDL version 423,2013-02-12 17:40:00,
2013-02-12 11:41:00,55.1,26.5,30.03,ENE,68,0.0,0.0,33,-99.99,,,-99.99,WSDL version 423,2013-02-12 17:41:00,
2013-02-12 11:43:00,55.1,26.6,30.03,ENE,68,0.0,0.0,33,-99.99,,,-99.99,WSDL version 423,2013-02-12 17:43:00,
2013-02-12 11:46:00,55.1,26.6,30.03,NNE,28,0.0,0.0,33,-99.99,,,-99.99,WSDL version 423,2013-02-12 17:46:00,
2013-02-12 11:48:00,55.1,26.5,30.03,NE,43,0.0,0.0,33,-99.99,,,-99.99,WSDL version 423,2013-02-12 17:48:00,
2013-02-12 11:50:00,55.1,26.5,30.03,NNE,19,0.0,0.0,33,-99.99,,,-99.99,WSDL version 423,2013-02-12 17:50:00,
2013-02-12 11:53:00,55.2,26.6,30.03,NE,50,0.0,0.0,33,-99.99,,,-99.99,WSDL version 423,2013-02-12 17:53:00,
2013-02-12 11:55:00,55.2,26.6,30.03,ENE,78,0.0,0.0,33,-99.99,,,-99.99,WSDL version 423,2013-02-12 17:55:00,
2013-02-12 11:59:00,55.0,26.3,30.03,NE,45,0.0,0.0,33,-99.99,,,-99.99,WSDL version 423,2013-02-12 17:59:00,
2013-02-12 12:02:00,55.2,26.6,30.03,North,353,0.0,0.0,33,-99.99,,,-99.99,WSDL version 423,2013-02-12 18:02:00,
2013-02-12 12:04:00,55.4,26.8,30.03,NNE,14,0.0,0.0,33,-99.99,,,-99.99,WSDL version 423,2013-02-12 18:04:00,
2013-02-12 12:07:00,55.6,27.0,30.03,ENE,60,0.0,0.0,33,-99.99,,,-99.99,WSDL version 423,2013-02-12 18:07:00,
2013-02-12 12:09:00,55.6,27.0,30.03,NE,50,0.0,0.0,33,-99.99,,,-99.99,WSDL version 423,2013-02-12 18:09:00,
2013-02-12 12:11:00,55.4,26.8,30.03,ENE,61,0.0,0.0,33,-99.99,,,-99.99,WSDL version 423,2013-02-12 18:11:00,
2013-02-12 12:13:00,55.3,26.7,30.03,ENE,68,0.0,0.0,33,-99.99,,,-99.99,WSDL version 423,2013-02-12 18:13:00,
2013-02-12 12:15:00,55.1,26.5,30.00,ENE,68,0.0,0.0,33,-99.99,,,-99.99,WSDL version 423,2013-02-12 18:15:00,
2013-02-12 12:16:00,55.1,26.5,30.00,NE,56,0.0,0.0,33,-99.99,,,-99.99,WSDL version 423,2013-02-12 18:16:00,
2013-02-12 12:17:00,55.0,26.5,30.00,NE,39,0.0,0.0,33,-99.99,,,-99.99,WSDL version 423,2013-02-12 18:17:00,
2013-02-12 12:21:00,54.8,26.3,30.00,ESE,105,0.0,0.0,33,-99.99,,,-99.99,WSDL version 423,2013-02-12 18:21:00,
2013-02-12 12:22:00,54.8,26.2,30.00,ENE,65,0.0,0.0,33,-99.99,,,-99.99,WSDL version 423,2013-02-12 18:22:00,
2013-02-12 12:23:00,54.7,26.2,30.00,NNE,13,0.0,0.0,33,-99.99,,,-99.99,WSDL version 423,2013-02-12 18:23:00,
2013-02-12 12:27:00,55.0,26.4,30.00,WNW,293,0.0,0.0,33,-99.99,,,-99.99,WSDL version 423,2013-02-12 18:27:00,
2013-02-12 12:29:00,55.2,26.6,30.00,NW,326,0.0,0.0,33,-99.99,,,-99.99,WSDL version 423,2013-02-12 18:29:00,
2013-02-12 12:32:00,55.4,26.8,30.00,North,357,0.0,0.0,33,-99.99,,,-99.99,WSDL version 423,2013-02-12 18:32:00,
2013-02-12 12:34:00,55.4,26.8,30.00,NE,53,0.0,0.0,33,-99.99,,,-99.99,WSDL version 423,2013-02-12 18:34:00,
2013-02-12 12:37:00,55.3,26.7,30.00,ENE,65,0.0,0.0,33,-99.99,,,-99.99,WSDL version 423,2013-02-12 18:37:00,
2013-02-12 12:38:00,55.3,26.7,30.00,ENE,65,0.0,0.0,33,-99.99,,,-99.99,WSDL version 423,2013-02-12 18:38:00,
2013-02-12 12:40:00,55.3,26.7,30.00,NNW,338,0.0,0.0,33,-99.99,,,-99.99,WSDL version 423,2013-02-12 18:40:00,
2013-02-12 12:43:00,55.3,26.7,30.00,East,79,0.0,0.0,33,-99.99,,,-99.99,WSDL version 423,2013-02-12 18:43:00,
2013-02-12 12:44:00,55.3,26.7,30.00,East,83,0.0,0.0,33,-99.99,,,-99.99,WSDL version 423,2013-02-12 18:44:00,
2013-02-12 12:49:00,54.8,26.3,30.00,NW,315,0.0,0.0,33,-99.99,,,-99.99,WSDL version 423,2013-02-12 18:49:00,
2013-02-12 12:50:00,54.8,26.3,30.00,NW,315,0.0,0.0,33,-99.99,,,-99.99,WSDL version 423,2013-02-12 18:50:00,
2013-02-12 12:51:00,54.8,26.3,30.00,NNW,328,0.0,0.0,33,-99.99,,,-99.99,WSDL version 423,2013-02-12 18:51:00,
2013-02-12 12:52:00,54.8,26.3,30.00,NNE,18,0.0,0.0,33,-99.99,,,-99.99,WSDL version 423,2013-02-12 18:52:00,
2013-02-12 12:55:00,54.7,26.2,30.00,NE,35,0.0,0.0,33,-99.99,,,-99.99,WSDL version 423,2013-02-12 18:55:00,
2013-02-12 12:56:00,54.7,26.1,30.00,NNE,23,0.0,0.0,33,-99.99,,,-99.99,WSDL version 423,2013-02-12 18:56:00,
2013-02-12 12:57:00,54.7,26.1,30.00,NNE,23,0.0,0.0,33,-99.99,,,-99.99,WSDL version 423,2013-02-12 18:57:00,
2013-02-12 12:58:00,54.7,26.1,30.00,NNE,23,0.0,0.0,33,-99.99,,,-99.99,WSDL version 423,2013-02-12 18:58:00,
2013-02-12 13:00:00,54.7,26.1,30.00,NNE,23,0.0,0.0,33,-99.99,,,-99.99,WSDL version 423,2013-02-12 19:00:00,
2013-02-12 13:05:00,54.6,26.1,30.00,ESE,110,0.0,0.0,33,-99.99,,,-99.99,WSDL version 423,2013-02-12 19:05:00,
2013-02-12 13:07:00,54.7,26.1,30.00,NNE,25,0.0,0.0,33,-99.99,,,-99.99,WSDL version 423,2013-02-12 19:07:00,
2013-02-12 13:10:00,54.7,26.1,30.00,NNE,23,0.0,0.0,33,-99.99,,,-99.99,WSDL version 423,2013-02-12 19:10:00,
2013-02-12 13:12:00,54.7,26.1,30.00,NNE,15,0.0,0.0,33,-99.99,,,-99.99,WSDL version 423,2013-02-12 19:12:00,
2013-02-12 13:14:00,54.7,26.1,30.00,NNE,23,0.0,0.0,33,-99.99,,,-99.99,WSDL version 423,2013-02-12 19:14:00,
2013-02-12 13:15:00,54.7,26.1,29.97,NNE,28,0.0,0.0,33,-99.99,,,-99.99,WSDL version 423,2013-02-12 19:15:00,
2013-02-12 13:18:00,54.7,26.1,29.97,NE,34,0.0,0.0,33,-99.99,,,-99.99,WSDL version 423,2013-02-12 19:18:00,
2013-02-12 13:20:00,54.6,26.1,29.97,ENE,58,0.0,0.0,33,-99.99,,,-99.99,WSDL version 423,2013-02-12 19:20:00,
2013-02-12 13:23:00,54.7,26.1,29.97,ENE,68,0.0,0.0,33,-99.99,,,-99.99,WSDL version 423,2013-02-12 19:23:00,
2013-02-12 13:24:00,54.7,26.1,29.97,ENE,68,0.0,0.0,33,-99.99,,,-99.99,WSDL version 423,2013-02-12 19:24:00,
2013-02-12 13:26:00,54.7,26.2,29.97,North,355,0.0,0.0,33,-99.99,,,-99.99,WSDL version 423,2013-02-12 19:26:00,
2013-02-12 13:28:00,54.8,26.2,29.97,NW,312,0.0,0.0,33,-99.99,,,-99.99,WSDL version 423,2013-02-12 19:28:00,
2013-02-12 13:31:00,54.8,26.3,30.00,NW,323,0.0,0.0,33,-99.99,,,-99.99,WSDL version 423,2013-02-12 19:31:00,
2013-02-12 13:32:00,54.8,26.3,30.00,NNW,335,0.0,0.0,33,-99.99,,,-99.99,WSDL version 423,2013-02-12 19:32:00,
2013-02-12 13:36:00,54.8,26.3,30.00,WNW,293,0.0,0.0,33,-99.99,,,-99.99,WSDL version 423,2013-02-12 19:36:00,
2013-02-12 13:37:00,54.8,26.3,30.00,NW,310,0.0,0.0,33,-99.99,,,-99.99,WSDL version 423,2013-02-12 19:37:00,
2013-02-12 13:38:00,54.8,26.3,30.00,NNW,330,0.0,0.0,33,-99.99,,,-99.99,WSDL version 423,2013-02-12 19:38:00,
2013-02-12 13:42:00,54.8,26.3,30.00,North,360,0.0,0.0,33,-99.99,,,-99.99,WSDL version 423,2013-02-12 19:42:00,
2013-02-12 13:43:00,54.8,26.2,30.00,NNE,23,0.0,0.0,33,-99.99,,,-99.99,WSDL version 423,2013-02-12 19:43:00,
2013-02-12 13:44:00,54.7,26.2,30.00,NNE,23,0.0,0.0,33,-99.99,,,-99.99,WSDL version 423,2013-02-12 19:44:00,
2013-02-12 13:52:00,54.5,26.0,29.97,NNE,28,0.0,0.0,33,0.00,,,0.00,WSDL version 423,2013-02-12 19:52:00,
2013-02-12 13:53:00,54.5,26.0,29.97,NNE,25,0.0,0.0,33,0.00,,,0.00,WSDL version 423,2013-02-12 19:53:00,
2013-02-12 13:56:00,54.4,25.9,29.97,NE,45,0.0,0.0,33,0.00,,,0.00,WSDL version 423,2013-02-12 19:56:00,
2013-02-12 13:58:00,54.3,25.8,29.97,NE,45,0.0,0.0,33,0.00,,,0.00,WSDL version 423,2013-02-12 19:58:00,
2013-02-12 13:59:00,54.2,25.7,29.97,NE,45,0.0,0.0,33,0.00,,,0.00,WSDL version 423,2013-02-12 19:59:00,
2013-02-12 14:02:00,54.0,25.5,29.97,NNE,25,0.0,0.0,33,0.00,,,0.00,WSDL version 423,2013-02-12 20:02:00,
2013-02-12 14:07:00,54.1,25.7,29.97,NNE,17,0.0,0.0,33,0.00,,,0.00,WSDL version 423,2013-02-12 20:07:00,
2013-02-12 14:08:00,54.2,25.7,29.97,NNW,338,0.0,0.0,33,0.00,,,0.00,WSDL version 423,2013-02-12 20:08:00,
2013-02-12 14:09:00,54.2,25.7,29.97,WNW,303,0.0,0.0,33,0.00,,,0.00,WSDL version 423,2013-02-12 20:09:00,
2013-02-12 14:14:00,54.1,25.7,29.97,NNW,329,0.0,0.0,33,0.00,,,0.00,WSDL version 423,2013-02-12 20:14:00,
2013-02-12 14:15:00,54.1,25.7,29.94,NNW,330,0.0,0.0,33,0.00,,,0.00,WSDL version 423,2013-02-12 20:15:00,
2013-02-12 14:17:00,54.2,25.7,29.94,NNE,28,0.0,0.0,33,0.00,,,0.00,WSDL version 423,2013-02-12 20:17:00,
2013-02-12 14:21:00,54.2,25.7,29.94,NNE,25,0.0,0.0,33,0.00,,,0.00,WSDL version 423,2013-02-12 20:21:00,
2013-02-12 14:22:00,54.2,25.7,29.94,NE,45,0.0,0.0,33,0.00,,,0.00,WSDL version 423,2013-02-12 20:22:00,
2013-02-12 14:26:00,54.0,25.6,29.94,ENE,73,0.0,0.0,33,0.00,,,0.00,WSDL version 423,2013-02-12 20:26:00,
2013-02-12 14:27:00,54.0,25.6,29.94,NE,42,0.0,0.0,33,0.00,,,0.00,WSDL version 423,2013-02-12 20:27:00,
2013-02-12 14:29:00,53.9,25.5,29.94,NNE,31,0.0,0.0,33,0.00,,,0.00,WSDL version 423,2013-02-12 20:29:00,
2013-02-12 14:31:00,53.9,25.5,29.91,NNE,20,0.0,0.0,33,0.00,,,0.00,WSDL version 423,2013-02-12 20:31:00,
2013-02-12 14:33:00,54.0,25.5,29.91,NE,48,0.0,0.0,33,0.00,,,0.00,WSDL version 423,2013-02-12 20:33:00,
2013-02-12 14:34:00,54.0,25.5,29.91,ENE,70,0.0,0.0,33,0.00,,,0.00,WSDL version 423,2013-02-12 20:34:00,
2013-02-12 14:38:00,53.9,25.5,29.91,ENE,65,0.0,0.0,33,0.00,,,0.00,WSDL version 423,2013-02-12 20:38:00,
2013-02-12 14:40:00,53.9,25.5,29.91,ENE,70,0.0,0.0,33,0.00,,,0.00,WSDL version 423,2013-02-12 20:40:00,
2013-02-12 14:41:00,53.9,25.5,29.91,ENE,60,0.0,0.0,33,0.00,,,0.00,WSDL version 423,2013-02-12 20:41:00,
2013-02-12 14:46:00,53.9,25.5,29.91,NNE,28,0.0,0.0,33,0.00,,,0.00,WSDL version 423,2013-02-12 20:46:00,
2013-02-12 14:48:00,54.0,25.6,29.91,NNE,28,0.0,0.0,33,0.00,,,0.00,WSDL version 423,2013-02-12 20:48:00,
2013-02-12 14:49:00,54.0,25.6,29.91,NNE,20,0.0,0.0,33,0.00,,,0.00,WSDL version 423,2013-02-12 20:49:00,
2013-02-12 14:51:00,54.2,25.7,29.91,North,3,0.0,0.0,33,0.00,,,0.00,WSDL version 423,2013-02-12 20:51:00,
2013-02-12 14:54:00,54.3,25.8,29.91,NE,40,0.0,0.0,33,0.00,,,0.00,WSDL version 423,2013-02-12 20:54:00,
2013-02-12 14:55:00,54.3,25.8,29.91,ENE,63,0.0,0.0,33,0.00,,,0.00,WSDL version 423,2013-02-12 20:55:00,
2013-02-12 14:57:00,54.3,25.8,29.91,NNE,14,0.0,0.0,33,0.00,,,0.00,WSDL version 423,2013-02-12 20:57:00,
2013-02-12 15:00:00,54.4,26.0,29.91,North,354,0.0,0.0,33,0.00,,,0.00,WSDL version 423,2013-02-12 21:00:00,
2013-02-12 15:02:00,54.5,26.0,29.91,North,350,0.0,0.0,33,0.00,,,0.00,WSDL version 423,2013-02-12 21:02:00,
2013-02-12 15:05:00,54.5,26.0,29.91,NNE,30,0.0,0.0,33,0.00,,,0.00,WSDL version 423,2013-02-12 21:05:00,
2013-02-12 15:07:00,54.4,25.9,29.91,NNW,332,0.0,0.0,33,0.00,,,0.00,WSDL version 423,2013-02-12 21:07:00,
2013-02-12 15:09:00,54.3,25.8,29.91,NE,40,0.0,0.0,33,0.00,,,0.00,WSDL version 423,2013-02-12 21:09:00,
2013-02-12 15:13:00,54.3,25.8,29.91,North,8,0.0,0.0,33,0.00,,,0.00,WSDL version 423,2013-02-12 21:13:00,
2013-02-12 15:14:00,54.3,25.8,29.91,NNE,26,0.0,0.0,33,0.00,,,0.00,WSDL version 423,2013-02-12 21:14:00,
2013-02-12 15:15:00,54.3,25.8,29.91,NNE,20,0.0,0.0,33,0.00,,,0.00,WSDL version 423,2013-02-12 21:15:00,
2013-02-12 15:18:00,54.3,25.8,29.91,NE,39,0.0,0.0,33,0.00,,,0.00,WSDL version 423,2013-02-12 21:18:00,
2013-02-12 15:19:00,54.2,25.8,29.91,ENE,63,0.0,0.0,33,0.00,,,0.00,WSDL version 423,2013-02-12 21:19:00,
2013-02-12 15:21:00,54.1,25.7,29.91,NE,42,0.0,0.0,33,0.00,,,0.00,WSDL version 423,2013-02-12 21:21:00,
2013-02-12 15:24:00,54.0,25.6,29.91,NE,42,0.0,0.0,33,0.00,,,0.00,WSDL version 423,2013-02-12 21:24:00,
2013-02-12 15:27:00,54.1,25.6,29.91,NNW,335,0.0,0.0,33,0.00,,,0.00,WSDL version 423,2013-02-12 21:27:00,
2013-02-12 15:30:00,54.1,25.7,29.91,NW,315,0.0,0.0,33,0.00,,,0.00,WSDL version 423,2013-02-12 21:30:00,
2013-02-12 15:33:00,54.1,25.7,29.88,NNE,15,0.0,0.0,33,0.00,,,0.00,WSDL version 423,2013-02-12 21:33:00,
2013-02-12 15:38:00,54.0,25.6,29.88,NNE,14,0.0,0.0,33,0.00,,,0.00,WSDL version 423,2013-02-12 21:38:00,
2013-02-12 15:41:00,53.9,25.5,29.88,NNE,15,0.0,0.0,33,0.00,,,0.00,WSDL version 423,2013-02-12 21:41:00,
2013-02-12 15:42:00,53.9,25.5,29.88,NW,318,0.0,0.0,33,0.00,,,0.00,WSDL version 423,2013-02-12 21:42:00,
2013-02-12 15:43:00,53.9,25.4,29.88,NW,321,0.0,0.0,33,0.00,,,0.00,WSDL version 423,2013-02-12 21:43:00,
2013-02-12 15:46:00,53.7,25.3,29.91,WNW,298,0.0,0.0,33,0.00,,,0.00,WSDL version 423,2013-02-12 21:46:00,
2013-02-12 15:47:00,53.7,25.3,29.91,WNW,290,0.0,0.0,33,0.00,,,0.00,WSDL version 423,2013-02-12 21:47:00,
2013-02-12 15:51:00,53.7,25.7,29.91,NNW,346,0.0,0.0,34,0.00,,,0.00,WSDL version 423,2013-02-12 21:51:00,
2013-02-12 15:53:00,53.8,26.1,29.91,NW,315,0.0,0.0,34,0.00,,,0.00,WSDL version 423,2013-02-12 21:53:00,
2013-02-12 15:55:00,53.7,25.9,29.91,NW,315,0.0,0.0,34,0.00,,,0.00,WSDL version 423,2013-02-12 21:55:00,
2013-02-12 15:56:00,53.7,25.9,29.91,NW,315,0.0,0.0,34,0.00,,,0.00,WSDL version 423,2013-02-12 21:56:00,
2013-02-12 15:58:00,53.6,25.8,29.91,North,8,0.0,0.0,34,0.00,,,0.00,WSDL version 423,2013-02-12 21:58:00,
2013-02-12 16:01:00,53.5,25.6,29.91,WNW,293,0.0,0.0,33,0.00,,,0.00,WSDL version 423,2013-02-12 22:01:00,
2013-02-12 16:03:00,53.4,25.2,29.91,NNW,335,0.0,0.0,33,0.00,,,0.00,WSDL version 423,2013-02-12 22:03:00,
2013-02-12 16:04:00,53.4,25.0,29.91,NNW,332,0.0,0.0,33,0.00,,,0.00,WSDL version 423,2013-02-12 22:04:00,
2013-02-12 16:08:00,53.2,25.2,29.91,NW,315,0.0,0.0,34,0.00,,,0.00,WSDL version 423,2013-02-12 22:08:00,
2013-02-12 16:10:00,53.2,25.5,29.91,NW,315,0.0,0.0,34,0.00,,,0.00,WSDL version 423,2013-02-12 22:10:00,
2013-02-12 16:12:00,53.2,25.6,29.91,NW,315,0.0,0.0,34,0.00,,,0.00,WSDL version 423,2013-02-12 22:12:00,
2013-02-12 16:14:00,53.2,25.6,29.91,NW,315,0.0,0.0,34,0.00,,,0.00,WSDL version 423,2013-02-12 22:14:00,
2013-02-12 16:15:00,53.2,25.6,29.91,NW,315,0.0,0.0,34,0.00,,,0.00,WSDL version 423,2013-02-12 22:15:00,
2013-02-12 16:16:00,53.2,25.6,29.91,NW,315,0.0,0.0,34,0.00,,,0.00,WSDL version 423,2013-02-12 22:16:00,
2013-02-12 16:20:00,53.2,25.6,29.91,NW,315,0.0,0.0,34,0.00,,,0.00,WSDL version 423,2013-02-12 22:20:00,
2013-02-12 16:22:00,53.2,25.6,29.91,NW,315,0.0,0.0,34,0.00,,,0.00,WSDL version 423,2013-02-12 22:22:00,
2013-02-12 16:23:00,53.2,25.6,29.91,NW,315,0.0,0.0,34,0.00,,,0.00,WSDL version 423,2013-02-12 22:23:00,
2013-02-12 16:28:00,53.2,25.6,29.91,NW,315,0.0,0.0,34,0.00,,,0.00,WSDL version 423,2013-02-12 22:28:00,
2013-02-12 16:29:00,53.2,25.6,29.91,NW,315,0.0,0.0,34,0.00,,,0.00,WSDL version 423,2013-02-12 22:29:00,
2013-02-12 16:31:00,53.1,25.5,29.88,NW,315,0.0,0.0,34,0.00,,,0.00,WSDL version 423,2013-02-12 22:31:00,
2013-02-12 16:36:00,53.0,25.5,29.88,NW,315,0.0,0.0,35,0.00,,,0.00,WSDL version 423,2013-02-12 22:36:00,
2013-02-12 16:37:00,52.9,25.6,29.88,NW,315,0.0,0.0,35,0.00,,,0.00,WSDL version 423,2013-02-12 22:37:00,
2013-02-12 16:38:00,52.9,25.6,29.88,NW,315,0.0,0.0,34,0.00,,,0.00,WSDL version 423,2013-02-12 22:38:00,
2013-02-12 16:42:00,52.9,25.9,29.88,NW,315,0.0,0.0,35,0.00,,,0.00,WSDL version 423,2013-02-12 22:42:00,
2013-02-12 16:43:00,52.9,26.0,29.88,NW,315,0.0,0.0,35,0.00,,,0.00,WSDL version 423,2013-02-12 22:43:00,
2013-02-12 16:47:00,52.9,26.0,29.91,NW,315,0.0,0.0,35,0.00,,,0.00,WSDL version 423,2013-02-12 22:47:00,
2013-02-12 16:48:00,52.9,26.0,29.91,NW,315,0.0,0.0,35,0.00,,,0.00,WSDL version 423,2013-02-12 22:48:00,
2013-02-12 16:49:00,52.9,26.0,29.91,NW,315,0.0,0.0,35,0.00,,,0.00,WSDL version 423,2013-02-12 22:49:00,
2013-02-12 16:53:00,52.9,26.0,29.91,NW,315,0.0,0.0,35,0.00,,,0.00,WSDL version 423,2013-02-12 22:53:00,
2013-02-12 16:56:00,52.8,25.9,29.91,NW,315,0.0,0.0,35,0.00,,,0.00,WSDL version 423,2013-02-12 22:56:00,
2013-02-12 16:57:00,52.8,25.9,29.91,NW,315,0.0,0.0,35,0.00,,,0.00,WSDL version 423,2013-02-12 22:57:00,
2013-02-12 16:58:00,52.7,25.9,29.91,NW,315,0.0,0.0,35,0.00,,,0.00,WSDL version 423,2013-02-12 22:58:00,
2013-02-12 17:01:00,52.6,25.8,29.91,NW,315,0.0,0.0,35,0.00,,,0.00,WSDL version 423,2013-02-12 23:01:00,
2013-02-12 17:03:00,52.5,25.7,29.91,NW,315,0.0,0.0,35,0.00,,,0.00,WSDL version 423,2013-02-12 23:03:00,
2013-02-12 17:06:00,52.3,25.6,29.91,NW,315,0.0,0.0,36,0.00,,,0.00,WSDL version 423,2013-02-12 23:06:00,
2013-02-12 17:08:00,52.1,25.7,29.91,NW,315,0.0,0.0,36,0.00,,,0.00,WSDL version 423,2013-02-12 23:08:00,
2013-02-12 17:11:00,52.1,26.0,29.91,NW,315,0.0,0.0,36,0.00,,,0.00,WSDL version 423,2013-02-12 23:11:00,
2013-02-12 17:12:00,52.1,26.0,29.91,NW,315,0.0,0.0,36,0.00,,,0.00,WSDL version 423,2013-02-12 23:12:00,
2013-02-12 17:14:00,52.0,25.9,29.91,NW,315,0.0,0.0,36,0.00,,,0.00,WSDL version 423,2013-02-12 23:14:00,
2013-02-12 17:18:00,51.8,25.7,29.88,NW,315,0.0,0.0,36,0.00,,,0.00,WSDL version 423,2013-02-12 23:18:00,
2013-02-12 17:21:00,51.7,25.6,29.88,NW,315,0.0,0.0,36,0.00,,,0.00,WSDL version 423,2013-02-12 23:21:00,
2013-02-12 17:22:00,51.7,25.6,29.88,NW,315,0.0,0.0,36,0.00,,,0.00,WSDL version 423,2013-02-12 23:22:00,
2013-02-12 17:23:00,51.6,25.6,29.88,NW,315,0.0,0.0,36,0.00,,,0.00,WSDL version 423,2013-02-12 23:23:00,
2013-02-12 17:26:00,51.5,25.7,29.88,NW,315,0.0,0.0,37,0.00,,,0.00,WSDL version 423,2013-02-12 23:26:00,
2013-02-12 17:28:00,51.4,25.9,29.88,NW,315,0.0,0.0,37,0.00,,,0.00,WSDL version 423,2013-02-12 23:28:00,
2013-02-12 17:31:00,51.4,26.0,29.88,NW,315,0.0,0.0,37,0.00,,,0.00,WSDL version 423,2013-02-12 23:31:00,
2013-02-12 17:35:00,51.3,26.4,29.88,NW,315,0.0,0.0,38,0.00,,,0.00,WSDL version 423,2013-02-12 23:35:00,
2013-02-12 17:36:00,51.3,26.5,29.88,NW,315,0.0,0.0,38,0.00,,,0.00,WSDL version 423,2013-02-12 23:36:00,
2013-02-12 17:37:00,51.3,26.4,29.88,NW,315,0.0,0.0,38,0.00,,,0.00,WSDL version 423,2013-02-12 23:37:00,
2013-02-12 17:41:00,51.2,26.7,29.88,NW,315,0.0,0.0,39,0.00,,,0.00,WSDL version 423,2013-02-12 23:41:00,
2013-02-12 17:42:00,51.2,26.8,29.88,NW,315,0.0,0.0,39,0.00,,,0.00,WSDL version 423,2013-02-12 23:42:00,
2013-02-12 17:43:00,51.1,26.9,29.88,NW,315,0.0,0.0,39,0.00,,,0.00,WSDL version 423,2013-02-12 23:43:00,
2013-02-12 17:46:00,51.0,26.8,29.88,NW,315,0.0,0.0,39,0.00,,,0.00,WSDL version 423,2013-02-12 23:46:00,
2013-02-12 17:48:00,50.9,26.7,29.88,NW,315,0.0,0.0,39,0.00,,,0.00,WSDL version 423,2013-02-12 23:48:00,
2013-02-12 17:51:00,50.9,26.9,29.88,NW,315,0.0,0.0,41,0.00,,,0.00,WSDL version 423,2013-02-12 23:51:00,
2013-02-12 17:52:00,50.9,27.1,29.88,NW,315,0.0,0.0,41,0.00,,,0.00,WSDL version 423,2013-02-12 23:52:00,
2013-02-12 17:56:00,50.7,27.7,29.88,NW,315,0.0,0.0,41,0.00,,,0.00,WSDL version 423,2013-02-12 23:56:00,
2013-02-12 17:57:00,50.7,27.7,29.88,NW,315,0.0,0.0,41,0.00,,,0.00,WSDL version 423,2013-02-12 23:57:00,
2013-02-12 17:59:00,50.7,27.7,29.88,NW,315,0.0,0.0,41,0.00,,,0.00,WSDL version 423,2013-02-12 23:59:00,
2013-02-12 18:02:00,50.6,27.6,29.88,NW,315,0.0,0.0,41,0.00,,,0.00,WSDL version 423,2013-02-13 00:02:00,
2013-02-12 18:03:00,50.6,27.6,29.88,NW,315,0.0,0.0,41,0.00,,,0.00,WSDL version 423,2013-02-13 00:03:00,
2013-02-12 18:07:00,50.5,27.9,29.88,NW,315,0.0,0.0,41,0.00,,,0.00,WSDL version 423,2013-02-13 00:07:00,
2013-02-12 18:08:00,50.5,28.0,29.88,WNW,303,0.0,0.0,41,0.00,,,0.00,WSDL version 423,2013-02-13 00:08:00,
2013-02-12 18:13:00,50.5,28.1,29.88,WNW,293,0.0,0.0,41,0.00,,,0.00,WSDL version 423,2013-02-13 00:13:00,
2013-02-12 18:15:00,50.5,28.1,29.88,WNW,293,0.0,0.0,41,0.00,,,0.00,WSDL version 423,2013-02-13 00:15:00,
2013-02-12 18:19:00,50.5,28.0,29.85,WNW,293,0.0,0.0,41,0.00,,,0.00,WSDL version 423,2013-02-13 00:19:00,
2013-02-12 18:20:00,50.5,28.0,29.85,WNW,293,0.0,0.0,41,0.00,,,0.00,WSDL version 423,2013-02-13 00:20:00,
2013-02-12 18:25:00,50.5,28.4,29.85,NW,305,0.0,0.0,42,0.00,,,0.00,WSDL version 423,2013-02-13 00:25:00,
2013-02-12 18:26:00,50.5,28.5,29.85,NW,315,0.0,0.0,42,0.00,,,0.00,WSDL version 423,2013-02-13 00:26:00,
2013-02-12 18:27:00,50.5,28.5,29.85,NW,315,0.0,0.0,42,0.00,,,0.00,WSDL version 423,2013-02-13 00:27:00,
2013-02-12 18:30:00,50.5,28.5,29.88,NW,315,0.0,0.0,42,0.00,,,0.00,WSDL version 423,2013-02-13 00:30:00,
2013-02-12 18:32:00,50.4,28.2,29.88,NW,315,0.0,0.0,41,0.00,,,0.00,WSDL version 423,2013-02-13 00:32:00,
2013-02-12 18:35:00,50.3,27.8,29.88,NW,315,0.0,0.0,41,0.00,,,0.00,WSDL version 423,2013-02-13 00:35:00,
2013-02-12 18:36:00,50.3,27.8,29.88,NW,315,0.0,0.0,41,0.00,,,0.00,WSDL version 423,2013-02-13 00:36:00,
2013-02-12 18:39:00,50.2,27.7,29.88,NW,315,0.0,0.0,41,0.00,,,0.00,WSDL version 423,2013-02-13 00:39:00,
2013-02-12 18:41:00,50.2,27.7,29.88,NW,315,0.0,0.0,41,0.00,,,0.00,WSDL version 423,2013-02-13 00:41:00,
2013-02-12 18:42:00,50.1,27.6,29.88,NW,315,0.0,0.0,41,0.00,,,0.00,WSDL version 423,2013-02-13 00:42:00,
2013-02-12 18:46:00,50.0,27.5,29.88,NW,315,0.0,0.0,41,0.00,,,0.00,WSDL version 423,2013-02-13 00:46:00,
2013-02-12 18:47:00,49.9,27.5,29.88,NW,315,0.0,0.0,41,0.00,,,0.00,WSDL version 423,2013-02-13 00:47:00,
2013-02-12 18:48:00,49.9,27.4,29.88,NW,315,0.0,0.0,41,0.00,,,0.00,WSDL version 423,2013-02-13 00:48:00,
2013-02-12 18:52:00,49.8,27.3,29.88,NW,315,0.0,0.0,41,0.00,,,0.00,WSDL version 423,2013-02-13 00:52:00,
2013-02-12 18:53:00,49.8,27.3,29.88,NW,315,0.0,0.0,41,0.00,,,0.00,WSDL version 423,2013-02-13 00:53:00,
2013-02-12 18:55:00,49.8,27.3,29.88,NW,315,0.0,0.0,41,0.00,,,0.00,WSDL version 423,2013-02-13 00:55:00,
2013-02-12 18:56:00,49.8,27.3,29.88,NW,315,0.0,0.0,41,0.00,,,0.00,WSDL version 423,2013-02-13 00:56:00,
2013-02-12 18:58:00,49.7,27.3,29.88,NW,315,0.0,0.0,41,0.00,,,0.00,WSDL version 423,2013-02-13 00:58:00,
2013-02-12 18:59:00,49.7,27.4,29.88,NW,315,0.0,0.0,42,0.00,,,0.00,WSDL version 423,2013-02-13 00:59:00,
2013-02-12 19:00:00,49.7,27.5,29.88,NW,315,0.0,0.0,42,0.00,,,0.00,WSDL version 423,2013-02-13 01:00:00,
2013-02-12 19:05:00,49.8,27.9,29.88,NW,315,0.0,0.0,42,0.00,,,0.00,WSDL version 423,2013-02-13 01:05:00,
2013-02-12 19:06:00,49.8,27.9,29.88,NW,315,0.0,0.0,42,0.00,,,0.00,WSDL version 423,2013-02-13 01:06:00,
2013-02-12 19:07:00,49.8,27.9,29.88,NW,315,0.0,0.0,42,0.00,,,0.00,WSDL version 423,2013-02-13 01:07:00,
2013-02-12 19:10:00,49.7,27.8,29.88,NW,315,0.0,0.0,42,0.00,,,0.00,WSDL version 423,2013-02-13 01:10:00,
2013-02-12 19:11:00,49.6,27.7,29.88,NW,315,0.0,0.0,42,0.00,,,0.00,WSDL version 423,2013-02-13 01:11:00,
2013-02-12 19:13:00,49.5,27.6,29.88,NW,315,0.0,0.0,42,0.00,,,0.00,WSDL version 423,2013-02-13 01:13:00,
2013-02-12 19:15:00,49.5,27.6,29.88,NW,315,0.0,0.0,42,0.00,,,0.00,WSDL version 423,2013-02-13 01:15:00,
2013-02-12 19:16:00,49.4,27.5,29.88,NW,315,0.0,0.0,42,0.00,,,0.00,WSDL version 423,2013-02-13 01:16:00,
2013-02-12 19:19:00,49.4,27.5,29.88,NW,315,0.0,0.0,42,0.00,,,0.00,WSDL version 423,2013-02-13 01:19:00,
2013-02-12 19:22:00,49.5,27.7,29.88,NW,315,0.0,0.0,42,0.00,,,0.00,WSDL version 423,2013-02-13 01:22:00,
2013-02-12 19:24:00,49.6,27.8,29.88,NW,315,0.0,0.0,42,0.00,,,0.00,WSDL version 423,2013-02-13 01:24:00,
2013-02-12 19:25:00,49.6,27.7,29.88,NW,315,0.0,0.0,42,0.00,,,0.00,WSDL version 423,2013-02-13 01:25:00,
2013-02-12 19:28:00,49.6,27.7,29.88,NNW,340,0.0,0.0,42,0.00,,,0.00,WSDL version 423,2013-02-13 01:28:00,
2013-02-12 19:29:00,49.6,27.7,29.88,NW,309,0.0,0.0,42,0.00,,,0.00,WSDL version 423,2013-02-13 01:29:00,
2013-02-12 19:30:00,49.6,27.7,29.85,WNW,293,0.0,0.0,42,0.00,,,0.00,WSDL version 423,2013-02-13 01:30:00,
2013-02-12 19:32:00,49.6,27.7,29.85,WNW,295,0.0,0.0,42,0.00,,,0.00,WSDL version 423,2013-02-13 01:32:00,
2013-02-12 19:36:00,49.6,28.1,29.85,WNW,290,0.0,0.0,43,0.00,,,0.00,WSDL version 423,2013-02-13 01:36:00,
2013-02-12 19:37:00,49.6,28.2,29.85,WNW,293,0.0,0.0,43,0.00,,,0.00,WSDL version 423,2013-02-13 01:37:00,
2013-02-12 19:40:00,49.5,27.9,29.85,WNW,287,0.0,0.0,42,0.00,,,0.00,WSDL version 423,2013-02-13 01:40:00,
2013-02-12 19:41:00,49.5,27.8,29.85,WNW,283,0.0,0.0,42,0.00,,,0.00,WSDL version 423,2013-02-13 01:41:00,
2013-02-12 19:43:00,49.4,27.5,29.85,WNW,293,0.0,0.0,42,0.00,,,0.00,WSDL version 423,2013-02-13 01:43:00,
2013-02-12 19:46:00,49.4,27.5,29.85,WNW,290,0.0,0.0,42,0.00,,,0.00,WSDL version 423,2013-02-13 01:46:00,
2013-02-12 19:47:00,49.4,27.5,29.85,WNW,293,0.0,0.0,42,0.00,,,0.00,WSDL version 423,2013-02-13 01:47:00,
2013-02-12 19:51:00,49.4,27.6,29.85,NNE,23,0.0,0.0,42,0.00,,,0.00,WSDL version 423,2013-02-13 01:51:00,
2013-02-12 19:53:00,49.4,27.5,29.85,NE,45,0.0,0.0,42,0.00,,,0.00,WSDL version 423,2013-02-13 01:53:00,
2013-02-12 19:56:00,49.4,27.5,29.85,NNE,23,0.0,0.0,42,0.00,,,0.00,WSDL version 423,2013-02-13 01:56:00,
2013-02-12 19:58:00,49.4,27.5,29.85,North,357,0.0,0.0,42,0.00,,,0.00,WSDL version 423,2013-02-13 01:58:00,
2013-02-12 20:01:00,49.4,27.5,29.85,NNE,14,0.0,0.0,42,0.00,,,0.00,WSDL version 423,2013-02-13 02:01:00,
2013-02-12 20:03:00,49.3,27.4,29.85,NNE,23,0.0,0.0,42,0.00,,,0.00,WSDL version 423,2013-02-13 02:03:00,
2013-02-12 20:04:00,49.3,27.4,29.85,NNE,25,0.0,0.0,42,0.00,,,0.00,WSDL version 423,2013-02-13 02:04:00,
2013-02-12 20:08:00,49.2,27.3,29.85,NNE,31,0.0,0.0,42,0.00,,,0.00,WSDL version 423,2013-02-13 02:08:00,
2013-02-12 20:09:00,49.2,27.3,29.85,NNE,30,0.0,0.0,42,0.00,,,0.00,WSDL version 423,2013-02-13 02:09:00,
2013-02-12 20:14:00,49.1,27.2,29.85,NNE,23,0.0,0.0,42,0.00,,,0.00,WSDL version 423,2013-02-13 02:14:00,
2013-02-12 20:15:00,49.0,27.2,29.85,NNE,23,0.0,0.0,42,0.00,,,0.00,WSDL version 423,2013-02-13 02:15:00,
2013-02-12 20:19:00,48.8,27.2,29.85,NE,42,0.0,0.0,43,0.00,,,0.00,WSDL version 423,2013-02-13 02:19:00,
2013-02-12 20:20:00,48.8,27.2,29.85,NNE,30,0.0,0.0,43,0.00,,,0.00,WSDL version 423,2013-02-13 02:20:00,
2013-02-12 20:23:00,48.7,27.4,29.85,NNE,23,0.0,0.0,43,0.00,,,0.00,WSDL version 423,2013-02-13 02:23:00,
2013-02-12 20:25:00,48.7,27.4,29.85,NNE,29,0.0,0.0,43,0.00,,,0.00,WSDL version 423,2013-02-13 02:25:00,
2013-02-12 20:26:00,48.7,27.4,29.85,NNE,25,0.0,0.0,43,0.00,,,0.00,WSDL version 423,2013-02-13 02:26:00,
2013-02-12 20:29:00,48.7,27.3,29.85,NNE,23,0.0,0.0,43,0.00,,,0.00,WSDL version 423,2013-02-13 02:29:00,
2013-02-12 20:30:00,48.6,27.3,29.83,NNE,23,0.0,0.0,43,0.00,,,0.00,WSDL version 423,2013-02-13 02:30:00,
2013-02-12 20:31:00,48.6,27.3,29.83,NNE,25,0.0,0.0,43,0.00,,,0.00,WSDL version 423,2013-02-13 02:31:00,
2013-02-12 20:36:00,48.5,27.2,29.83,NNE,23,0.0,0.0,43,0.00,,,0.00,WSDL version 423,2013-02-13 02:36:00,
2013-02-12 20:37:00,48.5,27.2,29.83,NNE,23,0.0,0.0,43,0.00,,,0.00,WSDL version 423,2013-02-13 02:37:00,
2013-02-12 20:38:00,48.5,27.2,29.83,NNE,23,0.0,0.0,43,0.00,,,0.00,WSDL version 423,2013-02-13 02:38:00,
2013-02-12 20:41:00,48.5,27.2,29.83,NNE,20,0.0,0.0,43,0.00,,,0.00,WSDL version 423,2013-02-13 02:41:00,
2013-02-12 20:42:00,48.5,27.2,29.83,NNE,15,0.0,0.0,43,0.00,,,0.00,WSDL version 423,2013-02-13 02:42:00,
2013-02-12 20:45:00,48.4,27.1,29.83,NNE,23,0.0,0.0,43,0.00,,,0.00,WSDL version 423,2013-02-13 02:45:00,
2013-02-12 20:46:00,48.4,27.1,29.83,NNE,17,0.0,0.0,43,0.00,,,0.00,WSDL version 423,2013-02-13 02:46:00,
2013-02-12 20:50:00,48.3,27.0,29.83,NNW,335,0.0,0.0,43,0.00,,,0.00,WSDL version 423,2013-02-13 02:50:00,
2013-02-12 20:51:00,48.3,27.0,29.83,NW,308,0.0,0.0,43,0.00,,,0.00,WSDL version 423,2013-02-13 02:51:00,
2013-02-12 20:55:00,48.2,26.9,29.83,NW,313,0.0,0.0,43,0.00,,,0.00,WSDL version 423,2013-02-13 02:55:00,
2013-02-12 20:56:00,48.2,26.9,29.83,WNW,295,0.0,0.0,43,0.00,,,0.00,WSDL version 423,2013-02-13 02:56:00,
2013-02-12 21:01:00,48.3,27.0,29.83,NW,321,0.0,0.0,43,0.00,,,0.00,WSDL version 423,2013-02-13 03:01:00,
2013-02-12 21:02:00,48.4,27.2,29.83,NW,320,0.0,0.0,44,0.00,,,0.00,WSDL version 423,2013-02-13 03:02:00,
2013-02-12 21:05:00,48.4,27.5,29.83,NNW,334,0.0,0.0,44,0.00,,,0.00,WSDL version 423,2013-02-13 03:05:00,
2013-02-12 21:06:00,48.4,27.6,29.83,SE,143,0.0,0.0,44,0.00,,,0.00,WSDL version 423,2013-02-13 03:06:00,
2013-02-12 21:07:00,48.5,27.7,29.83,NW,307,0.0,0.0,44,0.00,,,0.00,WSDL version 423,2013-02-13 03:07:00,
2013-02-12 21:12:00,48.5,27.3,29.83,NW,313,0.0,0.0,43,0.00,,,0.00,WSDL version 423,2013-02-13 03:12:00,
2013-02-12 21:14:00,48.5,27.2,29.83,NNW,331,0.0,0.0,43,0.00,,,0.00,WSDL version 423,2013-02-13 03:14:00,
2013-02-12 21:17:00,48.4,27.3,29.83,NNW,344,0.0,0.0,44,0.00,,,0.00,WSDL version 423,2013-02-13 03:17:00,
2013-02-12 21:19:00,48.5,27.6,29.83,NW,323,0.0,0.0,44,0.00,,,0.00,WSDL version 423,2013-02-13 03:19:00,
2013-02-12 21:20:00,48.5,27.6,29.83,NNW,330,0.0,0.0,44,0.00,,,0.00,WSDL version 423,2013-02-13 03:20:00,
2013-02-12 21:21:00,48.5,27.7,29.83,NW,318,0.0,0.0,44,0.00,,,0.00,WSDL version 423,2013-02-13 03:21:00,
2013-02-12 21:25:00,48.5,27.7,29.83,NW,309,0.0,0.0,44,0.00,,,0.00,WSDL version 423,2013-02-13 03:25:00,
2013-02-12 21:26:00,48.5,27.7,29.83,NW,310,0.0,0.0,44,0.00,,,0.00,WSDL version 423,2013-02-13 03:26:00,
2013-02-12 21:29:00,48.5,27.5,29.83,WNW,293,0.0,0.0,43,0.00,,,0.00,WSDL version 423,2013-02-13 03:29:00,
2013-02-12 21:31:00,48.4,27.3,29.80,NW,307,0.0,0.0,43,0.00,,,0.00,WSDL version 423,2013-02-13 03:31:00,
2013-02-12 21:32:00,48.4,27.2,29.80,WNW,293,0.0,0.0,44,0.00,,,0.00,WSDL version 423,2013-02-13 03:32:00,
2013-02-12 21:36:00,48.5,27.7,29.80,NW,312,0.0,0.0,44,0.00,,,0.00,WSDL version 423,2013-02-13 03:36:00,
2013-02-12 21:37:00,48.5,27.7,29.80,NW,307,0.0,0.0,44,0.00,,,0.00,WSDL version 423,2013-02-13 03:37:00,
2013-02-12 21:38:00,48.5,27.7,29.80,NNW,335,0.0,0.0,44,0.00,,,0.00,WSDL version 423,2013-02-13 03:38:00,
2013-02-12 21:42:00,48.5,27.7,29.80,WNW,298,0.0,0.0,44,0.00,,,0.00,WSDL version 423,2013-02-13 03:42:00,
2013-02-12 21:43:00,48.4,27.5,29.80,NW,309,0.0,0.0,43,0.00,,,0.00,WSDL version 423,2013-02-13 03:43:00,
2013-02-12 21:46:00,48.2,27.1,29.80,NW,304,0.0,0.0,43,0.00,,,0.00,WSDL version 423,2013-02-13 03:46:00,
2013-02-12 21:47:00,48.2,27.0,29.80,NW,305,0.0,0.0,44,0.00,,,0.00,WSDL version 423,2013-02-13 03:47:00,
2013-02-12 21:48:00,48.1,27.1,29.80,WNW,295,0.0,0.0,44,0.00,,,0.00,WSDL version 423,2013-02-13 03:48:00,
2013-02-12 21:53:00,48.0,27.3,29.80,NW,315,0.0,0.0,44,0.00,,,0.00,WSDL version 423,2013-02-13 03:53:00,
2013-02-12 21:54:00,48.0,27.3,29.80,NW,318,0.0,0.0,44,0.00,,,0.00,WSDL version 423,2013-02-13 03:54:00,
2013-02-12 21:55:00,48.0,27.3,29.80,NW,323,0.0,0.0,44,0.00,,,0.00,WSDL version 423,2013-02-13 03:55:00,
2013-02-12 21:58:00,48.0,27.2,29.80,WNW,301,0.0,0.0,44,0.00,,,0.00,WSDL version 423,2013-02-13 03:58:00,
2013-02-12 22:00:00,47.9,27.2,29.80,NW,309,0.0,0.0,44,0.00,,,0.00,WSDL version 423,2013-02-13 04:00:00,
2013-02-12 22:01:00,47.9,27.1,29.80,WNW,290,0.0,0.0,44,0.00,,,0.00,WSDL version 423,2013-02-13 04:01:00,
2013-02-12 22:04:00,47.8,27.2,29.80,NW,309,0.0,0.0,45,0.00,,,0.00,WSDL version 423,2013-02-13 04:04:00,
2013-02-12 22:05:00,47.8,27.4,29.80,NW,309,0.0,0.0,45,0.00,,,0.00,WSDL version 423,2013-02-13 04:05:00,
2013-02-12 22:06:00,47.8,27.4,29.80,NW,312,0.0,0.0,44,0.00,,,0.00,WSDL version 423,2013-02-13 04:06:00,
2013-02-12 22:10:00,47.8,27.3,29.80,NW,318,0.0,0.0,45,0.00,,,0.00,WSDL version 423,2013-02-13 04:10:00,
2013-02-12 22:13:00,47.8,27.3,29.80,NW,308,0.0,0.0,45,0.00,,,0.00,WSDL version 423,2013-02-13 04:13:00,
2013-02-12 22:15:00,47.8,27.3,29.80,North,8,0.0,0.0,44,0.00,,,0.00,WSDL version 423,2013-02-13 04:15:00,
2013-02-12 22:16:00,47.8,27.3,29.80,NNE,13,0.0,0.0,45,0.00,,,0.00,WSDL version 423,2013-02-13 04:16:00,
2013-02-12 22:20:00,47.7,27.1,29.80,NW,308,0.0,0.0,44,0.00,,,0.00,WSDL version 423,2013-02-13 04:20:00,
2013-02-12 22:22:00,47.7,27.1,29.80,WNW,293,0.0,0.0,45,0.00,,,0.00,WSDL version 423,2013-02-13 04:22:00,
2013-02-12 22:23:00,47.7,27.2,29.80,WNW,293,0.0,0.0,45,0.00,,,0.00,WSDL version 423,2013-02-13 04:23:00,
2013-02-12 22:25:00,47.7,27.5,29.80,WNW,293,0.0,0.0,45,0.00,,,0.00,WSDL version 423,2013-02-13 04:25:00,
2013-02-12 22:28:00,47.7,27.5,29.80,WNW,293,0.0,0.0,45,0.00,,,0.00,WSDL version 423,2013-02-13 04:28:00,
2013-02-12 22:32:00,47.6,27.4,29.80,NNW,338,0.0,0.0,45,0.00,,,0.00,WSDL version 423,2013-02-13 04:32:00,
2013-02-12 22:33:00,47.6,27.4,29.80,NNW,338,0.0,0.0,45,0.00,,,0.00,WSDL version 423,2013-02-13 04:33:00,
2013-02-12 22:34:00,47.6,27.4,29.80,NNW,338,0.0,0.0,45,0.00,,,0.00,WSDL version 423,2013-02-13 04:34:00,
2013-02-12 22:38:00,47.6,27.4,29.80,NNW,338,0.0,0.0,45,0.00,,,0.00,WSDL version 423,2013-02-13 04:38:00,
2013-02-12 22:39:00,47.6,27.4,29.80,NNW,338,0.0,0.0,45,0.00,,,0.00,WSDL version 423,2013-02-13 04:39:00,
2013-02-12 22:44:00,47.6,27.4,29.80,NW,326,0.0,0.0,45,0.00,,,0.00,WSDL version 423,2013-02-13 04:44:00,
2013-02-12 22:46:00,47.6,27.4,29.80,WNW,293,0.0,0.0,45,0.00,,,0.00,WSDL version 423,2013-02-13 04:46:00,
2013-02-12 23:07:00,47.1,27.9,29.80,NNE,29,0.0,0.0,47,0.00,,,0.00,WSDL version 423,2013-02-13 05:07:00,
2013-02-12 23:11:00,47.1,27.9,29.80,North,8,0.0,0.0,47,0.00,,,0.00,WSDL version 423,2013-02-13 05:11:00,
2013-02-12 23:12:00,47.1,27.9,29.80,NNW,348,0.0,0.0,47,0.00,,,0.00,WSDL version 423,2013-02-13 05:12:00,
2013-02-12 23:17:00,47.0,28.6,29.80,NNW,338,0.0,0.0,50,0.00,,,0.00,WSDL version 423,2013-02-13 05:17:00,
2013-02-12 23:20:00,46.9,28.8,29.80,NNE,26,0.0,0.0,50,0.00,,,0.00,WSDL version 423,2013-02-13 05:20:00,
2013-02-12 23:23:00,46.7,28.9,29.80,NE,40,0.0,0.0,50,0.00,,,0.00,WSDL version 423,2013-02-13 05:23:00,
2013-02-12 23:25:00,46.6,28.8,29.80,NE,45,0.0,0.0,50,0.00,,,0.00,WSDL version 423,2013-02-13 05:25:00,
2013-02-12 23:27:00,46.6,29.0,29.80,NE,34,0.0,0.0,51,0.00,,,0.00,WSDL version 423,2013-02-13 05:27:00,
2013-02-12 23:28:00,46.5,29.1,29.80,NNE,30,0.0,0.0,51,0.00,,,0.00,WSDL version 423,2013-02-13 05:28:00,
2013-02-12 23:31:00,46.4,29.2,29.80,NNE,23,0.0,0.0,51,0.00,,,0.00,WSDL version 423,2013-02-13 05:31:00,
2013-02-12 23:33:00,46.3,29.1,29.80,NNE,23,0.0,0.0,52,0.00,,,0.00,WSDL version 423,2013-02-13 05:33:00,
2013-02-12 23:34:00,46.3,29.2,29.80,NNE,23,0.0,0.0,52,0.00,,,0.00,WSDL version 423,2013-02-13 05:34:00,
2013-02-12 23:39:00,46.2,29.6,29.80,NW,310,0.0,0.0,52,0.00,,,0.00,WSDL version 423,2013-02-13 05:39:00,
2013-02-12 23:44:00,46.1,30.5,29.80,WNW,293,0.0,0.0,55,0.00,,,0.00,WSDL version 423,2013-02-13 05:44:00,
2013-02-12 23:46:00,46.0,30.8,29.80,WNW,303,0.0,0.0,56,0.00,,,0.00,WSDL version 423,2013-02-13 05:46:00,
2013-02-12 23:49:00,45.9,31.3,29.80,West,278,0.0,0.0,57,0.00,,,0.00,WSDL version 423,2013-02-13 05:49:00,
2013-02-12 23:53:00,45.7,31.7,29.80,WNW,283,0.0,0.0,58,0.00,,,0.00,WSDL version 423,2013-02-13 05:53:00,
2013-02-12 23:54:00,45.7,31.8,29.80,WNW,283,0.0,0.0,59,0.00,,,0.00,WSDL version 423,2013-02-13 05:54:00,
2013-02-12 23:59:00,45.5,31.5,29.80,NW,307,0.0,0.0,57,0.00,,,0.00,WSDL version 423,2013-02-13 05:59:00,